Wetterdaten: Samstag, 10.09.2022
Datum Zeit Temp. Aussen Temp. o. S. Temp +5cm Feuchte Auss Luftdruck Regen Sonnenschein Regendauer Solar Windben Empfang
10.09.2022 00:00 15,2 C 14,4 C 11,1 C 96 % 1010,2 hPa 0,0 l/m 0 min 0 min 0 W/m 0,0 km/h (0 Bft) 100,00 %
10.09.2022 00:02 15,2 C 14,4 C 11,1 C 96 % 1010,2 hPa 0,0 l/m 0 min 0 min 0 W/m 16,1 km/h (3 Bft) 97,44 %
10.09.2022 00:04 15,2 C 14,4 C 11,1 C 96 % 1010,2 hPa 0,0 l/m 0 min 0 min 0 W/m 12,9 km/h (3 Bft) 100,00 %
10.09.2022 00:08 15,2 C 14,4 C 10,6 C 96 % 1010,2 hPa 0,0 l/m 0 min 0 min 0 W/m 16,1 km/h (3 Bft) 100,00 %
10.09.2022 00:10 15,2 C 14,4 C 10,6 C 96 % 1010,2 hPa 0,0 l/m 0 min 0 min 0 W/m 12,9 km/h (3 Bft) 97,83 %
10.09.2022 00:12 15,1 C 14,4 C 10,6 C 96 % 1010,2 hPa 0,0 l/m 0 min 0 min 0 W/m 3,2 km/h (1 Bft) 97,87 %
10.09.2022 00:14 15,1 C 14,4 C 11,1 C 96 % 1010,3 hPa 0,0 l/m 0 min 0 min 0 W/m 6,4 km/h (2 Bft) 97,87 %
10.09.2022 00:16 15,1 C 14,4 C 11,1 C 96 % 1010,2 hPa 0,0 l/m 0 min 0 min 0 W/m 6,4 km/h (2 Bft) 95,74 %
10.09.2022 00:18 15,1 C 14,4 C 11,1 C 96 % 1010,3 hPa 0,0 l/m 0 min 0 min 0 W/m 9,7 km/h (2 Bft) 97,87 %
10.09.2022 00:20 15,1 C 14,4 C 11,1 C 96 % 1010,2 hPa 0,0 l/m 0 min 0 min 0 W/m 6,4 km/h (2 Bft) 97,87 %
10.09.2022 00:22 15,1 C 14,4 C 11,1 C 96 % 1010,3 hPa 0,0 l/m 0 min 0 min 0 W/m 12,9 km/h (3 Bft) 97,83 %
10.09.2022 00:24 15,1 C 14,4 C 10,6 C 96 % 1010,3 hPa 0,0 l/m 0 min 0 min 0 W/m 9,7 km/h (2 Bft) 97,87 %
10.09.2022 00:26 15,1 C 14,4 C 10,6 C 96 % 1010,3 hPa 0,0 l/m 0 min 0 min 0 W/m 6,4 km/h (2 Bft) 97,87 %
10.09.2022 00:28 15,1 C 14,4 C 10,6 C 96 % 1010,2 hPa 0,0 l/m 0 min 0 min 0 W/m 6,4 km/h (2 Bft) 97,87 %
10.09.2022 00:30 15,1 C 14,4 C 11,1 C 96 % 1010,2 hPa 0,0 l/m 0 min 0 min 0 W/m 9,7 km/h (2 Bft) 95,74 %
10.09.2022 00:32 15,1 C 14,4 C 10,6 C 96 % 1010,3 hPa 0,0 l/m 0 min 0 min 0 W/m 16,1 km/h (3 Bft) 97,83 %
10.09.2022 00:34 15,1 C 14,4 C 11,1 C 96 % 1010,3 hPa 0,0 l/m 0 min 0 min 0 W/m 12,9 km/h (3 Bft) 95,74 %
10.09.2022 00:36 15,1 C 14,4 C 10,6 C 96 % 1010,3 hPa 0,0 l/m 0 min 0 min 0 W/m 12,9 km/h (3 Bft) 97,87 %
10.09.2022 00:38 15,0 C 14,4 C 10,6 C 96 % 1010,3 hPa 0,0 l/m 0 min 0 min 0 W/m 6,4 km/h (2 Bft) 97,87 %
10.09.2022 00:40 15,0 C 13,9 C 10,6 C 96 % 1010,3 hPa 0,0 l/m 0 min 0 min 0 W/m 6,4 km/h (2 Bft) 97,87 %
10.09.2022 00:42 15,0 C 13,9 C 10,6 C 96 % 1010,2 hPa 0,0 l/m 0 min 0 min 0 W/m 9,7 km/h (2 Bft) 95,74 %
10.09.2022 00:44 15,0 C 13,9 C 10,6 C 96 % 1010,2 hPa 0,0 l/m 0 min 0 min 0 W/m 12,9 km/h (3 Bft) 97,87 %
10.09.2022 00:46 15,0 C 13,9 C 10,6 C 96 % 1010,3 hPa 0,0 l/m 0 min 0 min 0 W/m 3,2 km/h (1 Bft) 97,83 %
10.09.2022 00:48 15,0 C 13,9 C 11,1 C 96 % 1010,3 hPa 0,0 l/m 0 min 0 min 0 W/m 12,9 km/h (3 Bft) 97,87 %
10.09.2022 00:50 15,0 C 13,9 C 10,6 C 96 % 1010,2 hPa 0,0 l/m 0 min 0 min 0 W/m 9,7 km/h (2 Bft) 97,87 %
10.09.2022 00:52 14,9 C 13,9 C 10,6 C 96 % 1010,2 hPa 0,0 l/m 0 min 0 min 0 W/m 12,9 km/h (3 Bft) 95,74 %
10.09.2022 00:54 14,9 C 13,9 C 10,6 C 96 % 1010,2 hPa 0,0 l/m 0 min 0 min 0 W/m 12,9 km/h (3 Bft) 95,74 %
10.09.2022 00:56 14,9 C 13,9 C 10,6 C 96 % 1010,2 hPa 0,0 l/m 0 min 0 min 0 W/m 9,7 km/h (2 Bft) 97,83 %
10.09.2022 00:58 14,9 C 13,9 C 10,6 C 96 % 1010,2 hPa 0,0 l/m 0 min 0 min 0 W/m 3,2 km/h (1 Bft) 97,87 %
10.09.2022 01:00 14,9 C 13,9 C 10,6 C 96 % 1010,2 hPa 0,0 l/m 0 min 0 min 0 W/m 12,9 km/h (3 Bft) 95,74 %
10.09.2022 01:02 14,9 C 14,4 C 10,6 C 96 % 1010,2 hPa 0,0 l/m 0 min 0 min 0 W/m 19,3 km/h (3 Bft) 97,87 %
10.09.2022 01:04 14,9 C 14,4 C 10,6 C 96 % 1010,3 hPa 0,0 l/m 0 min 0 min 0 W/m 19,3 km/h (3 Bft) 97,92 %
10.09.2022 01:06 14,9 C 14,4 C 10,6 C 96 % 1010,3 hPa 0,0 l/m 0 min 0 min 0 W/m 16,1 km/h (3 Bft) 97,87 %
10.09.2022 01:08 14,9 C 14,4 C 10,6 C 96 % 1010,3 hPa 0,0 l/m 0 min 0 min 0 W/m 25,7 km/h (4 Bft) 97,83 %
10.09.2022 01:10 14,9 C 14,4 C 10,6 C 96 % 1010,2 hPa 0,0 l/m 0 min 0 min 0 W/m 19,3 km/h (3 Bft) 97,87 %
10.09.2022 01:12 14,9 C 14,4 C 10,6 C 96 % 1010,3 hPa 0,0 l/m 0 min 0 min 0 W/m 19,3 km/h (3 Bft) 100,00 %
10.09.2022 01:14 14,9 C 14,4 C 10,6 C 96 % 1010,3 hPa 0,0 l/m 0 min 0 min 0 W/m 22,5 km/h (4 Bft) 97,87 %
10.09.2022 01:16 14,9 C 14,4 C 10,6 C 96 % 1010,3 hPa 0,0 l/m 0 min 0 min 0 W/m 12,9 km/h (3 Bft) 97,87 %
10.09.2022 01:18 14,9 C 14,4 C 10,6 C 96 % 1010,2 hPa 0,0 l/m 0 min 0 min 0 W/m 0,0 km/h (0 Bft) 95,74 %
10.09.2022 01:20 14,9 C 14,4 C 10,6 C 96 % 1010,2 hPa 0,0 l/m 0 min 0 min 0 W/m 0,0 km/h (0 Bft) 95,65 %
10.09.2022 01:22 14,9 C 14,4 C 10,6 C 96 % 1010,2 hPa 0,0 l/m 0 min 0 min 0 W/m 3,2 km/h (1 Bft) 97,87 %
10.09.2022 01:24 14,9 C 14,4 C 10,6 C 96 % 1010,3 hPa 0,0 l/m 0 min 0 min 0 W/m 19,3 km/h (3 Bft) 97,87 %
10.09.2022 01:26 14,8 C 14,4 C 10,6 C 96 % 1010,3 hPa 0,0 l/m 0 min 0 min 0 W/m 22,5 km/h (4 Bft) 97,87 %
10.09.2022 01:28 14,9 C 14,4 C 10,6 C 96 % 1010,3 hPa 0,0 l/m 0 min 0 min 0 W/m 9,7 km/h (2 Bft) 89,36 %
10.09.2022 01:30 14,8 C 14,4 C 10,6 C 96 % 1010,4 hPa 0,0 l/m 0 min 0 min 0 W/m 25,7 km/h (4 Bft) 97,87 %
10.09.2022 01:32 14,8 C 14,4 C 10,6 C 96 % 1010,4 hPa 0,0 l/m 0 min 0 min 0 W/m 16,1 km/h (3 Bft) 97,83 %
10.09.2022 01:34 14,8 C 14,4 C 10,6 C 96 % 1010,4 hPa 0,0 l/m 0 min 0 min 0 W/m 12,9 km/h (3 Bft) 97,87 %
10.09.2022 01:36 14,8 C 14,4 C 10,6 C 96 % 1010,5 hPa 0,0 l/m 0 min 0 min 0 W/m 16,1 km/h (3 Bft) 97,87 %
10.09.2022 01:38 14,9 C 14,4 C 10,6 C 96 % 1010,5 hPa 0,0 l/m 0 min 0 min 0 W/m 6,4 km/h (2 Bft) 95,74 %
10.09.2022 01:40 14,9 C 14,4 C 10,6 C 96 % 1010,5 hPa 0,0 l/m 0 min 0 min 0 W/m 12,9 km/h (3 Bft) 97,87 %
10.09.2022 01:42 14,9 C 14,4 C 10,6 C 95 % 1010,5 hPa 0,0 l/m 0 min 0 min 0 W/m 16,1 km/h (3 Bft) 97,87 %
10.09.2022 01:44 14,9 C 14,4 C 10,6 C 95 % 1010,5 hPa 0,0 l/m 0 min 0 min 0 W/m 6,4 km/h (2 Bft) 93,48 %
10.09.2022 01:46 14,9 C 14,4 C 10,6 C 95 % 1010,5 hPa 0,0 l/m 0 min 0 min 0 W/m 9,7 km/h (2 Bft) 97,87 %
10.09.2022 01:48 14,9 C 14,4 C 10,6 C 95 % 1010,5 hPa 0,0 l/m 0 min 0 min 0 W/m 9,7 km/h (2 Bft) 97,87 %
10.09.2022 01:50 14,9 C 14,4 C 10,6 C 95 % 1010,5 hPa 0,0 l/m 0 min 0 min 0 W/m 6,4 km/h (2 Bft) 97,87 %
10.09.2022 01:52 14,9 C 14,4 C 10,6 C 95 % 1010,5 hPa 0,0 l/m 0 min 0 min 0 W/m 16,1 km/h (3 Bft) 97,87 %
10.09.2022 01:54 14,9 C 14,4 C 10,6 C 95 % 1010,5 hPa 0,0 l/m 0 min 0 min 0 W/m 9,7 km/h (2 Bft) 97,87 %
10.09.2022 01:56 14,9 C 14,4 C 10,6 C 95 % 1010,5 hPa 0,0 l/m 0 min 0 min 0 W/m 12,9 km/h (3 Bft) 97,83 %
10.09.2022 01:58 14,9 C 14,4 C 10,6 C 95 % 1010,5 hPa 0,0 l/m 0 min 0 min 0 W/m 9,7 km/h (2 Bft) 97,87 %
10.09.2022 02:00 14,9 C 14,4 C 10,6 C 95 % 1010,5 hPa 0,0 l/m 0 min 0 min 0 W/m 9,7 km/h (2 Bft) 97,87 %
10.09.2022 02:02 14,9 C 14,4 C 10,6 C 95 % 1010,5 hPa 0,0 l/m 0 min 0 min 0 W/m 16,1 km/h (3 Bft) 95,74 %
10.09.2022 02:04 14,9 C 14,4 C 10,6 C 95 % 1010,6 hPa 0,0 l/m 0 min 0 min 0 W/m 19,3 km/h (3 Bft) 97,87 %
10.09.2022 02:06 14,9 C 14,4 C 10,6 C 95 % 1010,6 hPa 0,0 l/m 0 min 0 min 0 W/m 9,7 km/h (2 Bft) 97,87 %
10.09.2022 02:08 14,9 C 14,4 C 10,6 C 95 % 1010,6 hPa 0,0 l/m 0 min 0 min 0 W/m 12,9 km/h (3 Bft) 97,83 %
10.09.2022 02:10 14,9 C 14,4 C 10,6 C 95 % 1010,6 hPa 0,0 l/m 0 min 0 min 0 W/m 16,1 km/h (3 Bft) 97,87 %
10.09.2022 02:12 14,9 C 14,4 C 10,6 C 95 % 1010,6 hPa 0,0 l/m 0 min 0 min 0 W/m 19,3 km/h (3 Bft) 97,87 %
10.09.2022 02:14 14,9 C 14,4 C 10,6 C 95 % 1010,6 hPa 0,0 l/m 0 min 0 min 0 W/m 12,9 km/h (3 Bft) 97,87 %
10.09.2022 02:16 14,9 C 14,4 C 10,6 C 95 % 1010,6 hPa 0,0 l/m 0 min 0 min 0 W/m 12,9 km/h (3 Bft) 100,00 %
10.09.2022 02:18 14,9 C 14,4 C 10,6 C 95 % 1010,6 hPa 0,0 l/m 0 min 0 min 0 W/m 9,7 km/h (2 Bft) 97,87 %
10.09.2022 02:20 15,0 C 14,4 C 10,6 C 95 % 1010,5 hPa 0,0 l/m 0 min 0 min 0 W/m 9,7 km/h (2 Bft) 100,00 %
10.09.2022 02:22 15,0 C 14,4 C 10,6 C 95 % 1010,6 hPa 0,0 l/m 0 min 0 min 0 W/m 12,9 km/h (3 Bft) 100,00 %
10.09.2022 02:24 15,0 C 14,4 C 10,6 C 95 % 1010,5 hPa 0,0 l/m 0 min 0 min 0 W/m 6,4 km/h (2 Bft) 100,00 %
10.09.2022 02:26 15,0 C 14,4 C 10,6 C 94 % 1010,5 hPa 0,0 l/m 0 min 0 min 0 W/m 9,7 km/h (2 Bft) 97,87 %
10.09.2022 02:28 15,0 C 14,4 C 10,6 C 94 % 1010,4 hPa 0,0 l/m 0 min 0 min 0 W/m 6,4 km/h (2 Bft) 97,87 %
10.09.2022 02:30 15,0 C 14,4 C 10,6 C 94 % 1010,5 hPa 0,0 l/m 0 min 0 min 0 W/m 9,7 km/h (2 Bft) 97,87 %
10.09.2022 02:32 15,0 C 14,4 C 10,6 C 94 % 1010,5 hPa 0,0 l/m 0 min 0 min 0 W/m 6,4 km/h (2 Bft) 100,00 %
10.09.2022 02:34 15,0 C 14,4 C 10,6 C 94 % 1010,5 hPa 0,0 l/m 0 min 0 min 0 W/m 16,1 km/h (3 Bft) 97,87 %
10.09.2022 02:36 15,0 C 14,4 C 10,6 C 94 % 1010,5 hPa 0,0 l/m 0 min 0 min 0 W/m 12,9 km/h (3 Bft) 100,00 %
10.09.2022 02:38 15,0 C 14,4 C 10,6 C 94 % 1010,5 hPa 0,0 l/m 0 min 0 min 0 W/m 9,7 km/h (2 Bft) 97,87 %
10.09.2022 02:40 15,0 C 14,4 C 10,6 C 94 % 1010,6 hPa 0,0 l/m 0 min 0 min 0 W/m 12,9 km/h (3 Bft) 100,00 %
10.09.2022 02:42 15,0 C 14,4 C 10,6 C 94 % 1010,5 hPa 0,0 l/m 0 min 0 min 0 W/m 6,4 km/h (2 Bft) 97,87 %
10.09.2022 02:44 15,0 C 14,4 C 10,6 C 94 % 1010,5 hPa 0,0 l/m 0 min 0 min 0 W/m 9,7 km/h (2 Bft) 97,83 %
10.09.2022 02:46 15,0 C 14,4 C 10,6 C 94 % 1010,6 hPa 0,0 l/m 0 min 0 min 0 W/m 12,9 km/h (3 Bft) 93,62 %
10.09.2022 02:48 15,0 C 14,4 C 10,6 C 94 % 1010,6 hPa 0,0 l/m 0 min 0 min 0 W/m 12,9 km/h (3 Bft) 93,62 %
10.09.2022 02:50 15,0 C 14,4 C 10,6 C 94 % 1010,6 hPa 0,0 l/m 0 min 0 min 0 W/m 9,7 km/h (2 Bft) 95,74 %
10.09.2022 02:52 15,0 C 14,4 C 10,6 C 94 % 1010,7 hPa 0,0 l/m 0 min 0 min 0 W/m 6,4 km/h (2 Bft) 95,74 %
10.09.2022 02:54 15,0 C 14,4 C 10,6 C 94 % 1010,6 hPa 0,0 l/m 0 min 0 min 0 W/m 9,7 km/h (2 Bft) 95,74 %
10.09.2022 02:56 15,0 C 14,4 C 10,6 C 94 % 1010,6 hPa 0,0 l/m 0 min 0 min 0 W/m 9,7 km/h (2 Bft) 93,48 %
10.09.2022 02:58 15,0 C 14,4 C 10,6 C 94 % 1010,5 hPa 0,0 l/m 0 min 0 min 0 W/m 12,9 km/h (3 Bft) 95,74 %
10.09.2022 03:00 15,0 C 14,4 C 10,6 C 94 % 1010,5 hPa 0,0 l/m 0 min 0 min 0 W/m 12,9 km/h (3 Bft) 95,74 %
10.09.2022 03:02 15,0 C 14,4 C 10,6 C 94 % 1010,5 hPa 0,0 l/m 0 min 0 min 0 W/m 12,9 km/h (3 Bft) 95,74 %
10.09.2022 03:04 15,0 C 14,4 C 10,6 C 94 % 1010,5 hPa 0,0 l/m 0 min 0 min 0 W/m 16,1 km/h (3 Bft) 95,74 %
10.09.2022 03:06 15,0 C 14,4 C 10,6 C 94 % 1010,4 hPa 0,0 l/m 0 min 0 min 0 W/m 6,4 km/h (2 Bft) 95,65 %
10.09.2022 03:08 15,0 C 14,4 C 10,6 C 94 % 1010,5 hPa 0,0 l/m 0 min 0 min 0 W/m 9,7 km/h (2 Bft) 95,74 %
10.09.2022 03:10 15,0 C 14,4 C 10,6 C 94 % 1010,4 hPa 0,0 l/m 0 min 0 min 0 W/m 9,7 km/h (2 Bft) 93,62 %
10.09.2022 03:12 15,0 C 14,4 C 10,6 C 94 % 1010,4 hPa 0,0 l/m 0 min 0 min 0 W/m 12,9 km/h (3 Bft) 95,74 %
10.09.2022 03:14 15,0 C 14,4 C 10,6 C 94 % 1010,4 hPa 0,0 l/m 0 min 0 min 0 W/m 12,9 km/h (3 Bft) 97,87 %
10.09.2022 03:16 15,0 C 14,4 C 10,6 C 94 % 1010,4 hPa 0,0 l/m 0 min 0 min 0 W/m 19,3 km/h (3 Bft) 97,87 %
10.09.2022 03:18 15,0 C 14,4 C 10,6 C 94 % 1010,4 hPa 0,0 l/m 0 min 0 min 0 W/m 19,3 km/h (3 Bft) 97,83 %
10.09.2022 03:20 15,0 C 14,4 C 10,6 C 94 % 1010,4 hPa 0,0 l/m 0 min 0 min 0 W/m 3,2 km/h (1 Bft) 95,74 %
10.09.2022 03:22 15,1 C 14,4 C 10,6 C 94 % 1010,4 hPa 0,0 l/m 0 min 0 min 0 W/m 3,2 km/h (1 Bft) 97,87 %
10.09.2022 03:24 15,0 C 14,4 C 10,6 C 94 % 1010,4 hPa 0,0 l/m 0 min 0 min 0 W/m 3,2 km/h (1 Bft) 97,87 %
10.09.2022 03:26 15,0 C 14,4 C 10,6 C 94 % 1010,3 hPa 0,0 l/m 0 min 0 min 0 W/m 3,2 km/h (1 Bft) 100,00 %
10.09.2022 03:28 15,0 C 14,4 C 10,6 C 94 % 1010,4 hPa 0,0 l/m 0 min 0 min 0 W/m 9,7 km/h (2 Bft) 97,87 %
10.09.2022 03:30 15,0 C 14,4 C 10,6 C 94 % 1010,4 hPa 0,0 l/m 0 min 0 min 0 W/m 6,4 km/h (2 Bft) 95,65 %
10.09.2022 03:32 15,0 C 14,4 C 10,6 C 94 % 1010,4 hPa 0,0 l/m 0 min 0 min 0 W/m 12,9 km/h (3 Bft) 100,00 %
10.09.2022 03:34 15,0 C 14,4 C 10,6 C 94 % 1010,4 hPa 0,0 l/m 0 min 0 min 0 W/m 6,4 km/h (2 Bft) 100,00 %
10.09.2022 03:36 15,0 C 14,4 C 10,6 C 94 % 1010,4 hPa 0,0 l/m 0 min 0 min 0 W/m 16,1 km/h (3 Bft) 100,00 %
10.09.2022 03:38 15,0 C 14,4 C 10,6 C 94 % 1010,4 hPa 0,0 l/m 0 min 0 min 0 W/m 19,3 km/h (3 Bft) 97,87 %
10.09.2022 03:40 15,0 C 14,4 C 10,6 C 94 % 1010,5 hPa 0,0 l/m 0 min 0 min 0 W/m 9,7 km/h (2 Bft) 100,00 %
10.09.2022 03:42 15,1 C 14,4 C 10,6 C 94 % 1010,4 hPa 0,0 l/m 0 min 0 min 0 W/m 6,4 km/h (2 Bft) 100,00 %
10.09.2022 03:44 15,1 C 14,4 C 10,6 C 94 % 1010,4 hPa 0,0 l/m 0 min 0 min 0 W/m 3,2 km/h (1 Bft) 100,00 %
10.09.2022 03:46 15,1 C 14,4 C 10,6 C 94 % 1010,4 hPa 0,0 l/m 0 min 0 min 0 W/m 6,4 km/h (2 Bft) 97,87 %
10.09.2022 03:48 15,1 C 14,4 C 10,6 C 94 % 1010,5 hPa 0,0 l/m 0 min 0 min 0 W/m 25,7 km/h (4 Bft) 100,00 %
10.09.2022 03:50 15,1 C 14,4 C 10,6 C 94 % 1010,4 hPa 0,0 l/m 0 min 0 min 0 W/m 16,1 km/h (3 Bft) 100,00 %
10.09.2022 03:52 15,1 C 14,4 C 10,6 C 94 % 1010,4 hPa 0,0 l/m 0 min 0 min 0 W/m 12,9 km/h (3 Bft) 100,00 %
10.09.2022 03:54 15,1 C 14,4 C 10,6 C 94 % 1010,4 hPa 0,0 l/m 0 min 0 min 0 W/m 6,4 km/h (2 Bft) 100,00 %
10.09.2022 03:56 15,1 C 14,4 C 10,6 C 94 % 1010,4 hPa 0,0 l/m 0 min 0 min 0 W/m 6,4 km/h (2 Bft) 100,00 %
10.09.2022 03:58 15,1 C 14,4 C 10,6 C 94 % 1010,4 hPa 0,0 l/m 0 min 0 min 0 W/m 9,7 km/h (2 Bft) 100,00 %
10.09.2022 04:00 15,1 C 14,4 C 10,6 C 94 % 1010,4 hPa 0,0 l/m 0 min 0 min 0 W/m 9,7 km/h (2 Bft) 100,00 %
10.09.2022 04:02 15,1 C 14,4 C 10,6 C 94 % 1010,4 hPa 0,0 l/m 0 min 0 min 0 W/m 6,4 km/h (2 Bft) 100,00 %
10.09.2022 04:04 15,1 C 14,4 C 10,6 C 94 % 1010,4 hPa 0,0 l/m 0 min 0 min 0 W/m 16,1 km/h (3 Bft) 93,62 %
10.09.2022 04:06 15,1 C 14,4 C 10,6 C 94 % 1010,3 hPa 0,0 l/m 0 min 0 min 0 W/m 9,7 km/h (2 Bft) 98,15 %
10.09.2022 04:08 15,1 C 14,4 C 10,6 C 94 % 1010,3 hPa 0,0 l/m 0 min 0 min 0 W/m 9,7 km/h (2 Bft) 100,00 %
10.09.2022 04:10 15,2 C 14,4 C 10,6 C 94 % 1010,3 hPa 0,0 l/m 0 min 0 min 0 W/m 12,9 km/h (3 Bft) 97,87 %
10.09.2022 04:12 15,2 C 14,4 C 10,6 C 94 % 1010,3 hPa 0,0 l/m 0 min 0 min 0 W/m 16,1 km/h (3 Bft) 100,00 %
10.09.2022 04:14 15,2 C 14,4 C 10,6 C 94 % 1010,3 hPa 0,0 l/m 0 min 0 min 0 W/m 16,1 km/h (3 Bft) 100,00 %
10.09.2022 04:16 15,2 C 14,4 C 10,6 C 94 % 1010,3 hPa 0,0 l/m 0 min 0 min 0 W/m 3,2 km/h (1 Bft) 100,00 %
10.09.2022 04:18 15,2 C 14,4 C 10,6 C 94 % 1010,3 hPa 0,0 l/m 0 min 0 min 0 W/m 22,5 km/h (4 Bft) 100,00 %
10.09.2022 04:20 15,2 C 14,4 C 10,6 C 94 % 1010,4 hPa 0,0 l/m 0 min 0 min 0 W/m 6,4 km/h (2 Bft) 100,00 %
10.09.2022 04:22 15,2 C 14,4 C 10,6 C 94 % 1010,4 hPa 0,0 l/m 0 min 0 min 0 W/m 19,3 km/h (3 Bft) 100,00 %
10.09.2022 04:24 15,2 C 14,4 C 10,6 C 94 % 1010,3 hPa 0,0 l/m 0 min 0 min 0 W/m 12,9 km/h (3 Bft) 100,00 %
10.09.2022 04:26 15,2 C 14,4 C 10,6 C 94 % 1010,3 hPa 0,0 l/m 0 min 0 min 0 W/m 19,3 km/h (3 Bft) 97,87 %
10.09.2022 04:28 15,2 C 14,4 C 10,6 C 94 % 1010,3 hPa 0,0 l/m 0 min 0 min 0 W/m 6,4 km/h (2 Bft) 95,74 %
10.09.2022 04:30 15,2 C 14,4 C 10,6 C 94 % 1010,3 hPa 0,0 l/m 0 min 0 min 0 W/m 9,7 km/h (2 Bft) 97,83 %
10.09.2022 04:32 15,2 C 14,4 C 10,6 C 94 % 1010,3 hPa 0,0 l/m 0 min 0 min 0 W/m 9,7 km/h (2 Bft) 95,74 %
10.09.2022 04:34 15,3 C 14,4 C 10,6 C 94 % 1010,3 hPa 0,0 l/m 0 min 0 min 0 W/m 9,7 km/h (2 Bft) 95,74 %
10.09.2022 04:36 15,3 C 14,4 C 10,6 C 94 % 1010,3 hPa 0,0 l/m 0 min 0 min 0 W/m 16,1 km/h (3 Bft) 93,22 %
10.09.2022 04:38 15,3 C 14,4 C 10,6 C 94 % 1010,3 hPa 0,0 l/m 0 min 0 min 0 W/m 19,3 km/h (3 Bft) 100,00 %
10.09.2022 04:40 15,3 C 14,4 C 10,6 C 94 % 1010,3 hPa 0,0 l/m 0 min 0 min 0 W/m 16,1 km/h (3 Bft) 91,49 %
10.09.2022 04:42 15,3 C 14,4 C 10,6 C 94 % 1010,3 hPa 0,0 l/m 0 min 0 min 0 W/m 22,5 km/h (4 Bft) 93,48 %
10.09.2022 04:44 15,3 C 14,4 C 10,6 C 94 % 1010,3 hPa 0,0 l/m 0 min 0 min 0 W/m 16,1 km/h (3 Bft) 95,74 %
10.09.2022 04:46 15,3 C 14,4 C 10,6 C 94 % 1010,3 hPa 0,0 l/m 0 min 0 min 0 W/m 12,9 km/h (3 Bft) 93,62 %
10.09.2022 04:48 15,3 C 14,4 C 10,6 C 94 % 1010,3 hPa 0,0 l/m 0 min 0 min 0 W/m 25,7 km/h (4 Bft) 95,74 %
10.09.2022 04:50 15,3 C 14,4 C 10,6 C 94 % 1010,3 hPa 0,0 l/m 0 min 0 min 0 W/m 12,9 km/h (3 Bft) 95,74 %
10.09.2022 04:52 15,3 C 14,4 C 10,6 C 94 % 1010,3 hPa 0,0 l/m 0 min 0 min 0 W/m 6,4 km/h (2 Bft) 95,74 %
10.09.2022 04:54 15,3 C 14,4 C 10,6 C 94 % 1010,3 hPa 0,0 l/m 0 min 0 min 0 W/m 12,9 km/h (3 Bft) 96,00 %
10.09.2022 04:56 15,3 C 14,4 C 10,6 C 94 % 1010,3 hPa 0,0 l/m 0 min 0 min 0 W/m 12,9 km/h (3 Bft) 93,62 %
10.09.2022 04:58 15,3 C 14,4 C 10,6 C 94 % 1010,4 hPa 0,0 l/m 0 min 0 min 0 W/m 12,9 km/h (3 Bft) 95,74 %
10.09.2022 05:00 15,4 C 14,4 C 11,1 C 94 % 1010,4 hPa 0,0 l/m 0 min 0 min 0 W/m 16,1 km/h (3 Bft) 95,74 %
10.09.2022 05:02 15,4 C 14,4 C 11,1 C 94 % 1010,4 hPa 0,0 l/m 0 min 0 min 0 W/m 9,7 km/h (2 Bft) 95,74 %
10.09.2022 05:04 15,4 C 15,0 C 11,1 C 94 % 1010,4 hPa 0,0 l/m 0 min 0 min 0 W/m 16,1 km/h (3 Bft) 95,74 %
10.09.2022 05:06 15,4 C 15,0 C 11,1 C 94 % 1010,5 hPa 0,0 l/m 0 min 0 min 0 W/m 16,1 km/h (3 Bft) 97,83 %
10.09.2022 05:08 15,4 C 15,0 C 11,1 C 94 % 1010,4 hPa 0,0 l/m 0 min 0 min 0 W/m 6,4 km/h (2 Bft) 95,74 %
10.09.2022 05:10 15,4 C 15,0 C 11,1 C 94 % 1010,4 hPa 0,0 l/m 0 min 0 min 0 W/m 12,9 km/h (3 Bft) 97,87 %
10.09.2022 05:12 15,4 C 15,0 C 11,1 C 94 % 1010,4 hPa 0,0 l/m 0 min 0 min 0 W/m 29,0 km/h (5 Bft) 95,74 %
10.09.2022 05:14 15,4 C 15,0 C 11,1 C 94 % 1010,4 hPa 0,0 l/m 0 min 0 min 0 W/m 12,9 km/h (3 Bft) 95,74 %
10.09.2022 05:16 15,4 C 15,0 C 11,1 C 94 % 1010,4 hPa 0,0 l/m 0 min 0 min 0 W/m 12,9 km/h (3 Bft) 97,87 %
10.09.2022 05:18 15,4 C 15,0 C 11,1 C 94 % 1010,4 hPa 0,0 l/m 0 min 0 min 0 W/m 12,9 km/h (3 Bft) 100,00 %
10.09.2022 05:20 15,4 C 15,0 C 11,1 C 94 % 1010,4 hPa 0,0 l/m 0 min 0 min 0 W/m 16,1 km/h (3 Bft) 100,00 %
10.09.2022 05:22 15,4 C 15,0 C 11,1 C 94 % 1010,4 hPa 0,0 l/m 0 min 0 min 0 W/m 16,1 km/h (3 Bft) 97,87 %
10.09.2022 05:24 15,4 C 15,0 C 11,1 C 94 % 1010,4 hPa 0,0 l/m 0 min 0 min 0 W/m 16,1 km/h (3 Bft) 97,87 %
10.09.2022 05:26 15,4 C 15,0 C 11,7 C 94 % 1010,4 hPa 0,0 l/m 0 min 0 min 0 W/m 19,3 km/h (3 Bft) 97,87 %
10.09.2022 05:28 15,4 C 15,0 C 11,1 C 94 % 1010,4 hPa 0,0 l/m 0 min 0 min 0 W/m 6,4 km/h (2 Bft) 97,87 %
10.09.2022 05:30 15,4 C 15,0 C 11,7 C 94 % 1010,3 hPa 0,0 l/m 0 min 0 min 0 W/m 16,1 km/h (3 Bft) 97,83 %
10.09.2022 05:32 15,4 C 15,0 C 11,7 C 94 % 1010,3 hPa 0,0 l/m 0 min 0 min 0 W/m 9,7 km/h (2 Bft) 97,87 %
10.09.2022 05:34 15,4 C 15,0 C 11,7 C 94 % 1010,3 hPa 0,0 l/m 0 min 0 min 0 W/m 12,9 km/h (3 Bft) 93,62 %
10.09.2022 05:36 15,4 C 15,0 C 11,7 C 94 % 1010,3 hPa 0,0 l/m 0 min 0 min 0 W/m 19,3 km/h (3 Bft) 95,74 %
10.09.2022 05:38 15,4 C 15,0 C 11,7 C 94 % 1010,3 hPa 0,0 l/m 0 min 0 min 0 W/m 12,9 km/h (3 Bft) 97,87 %
10.09.2022 05:40 15,4 C 15,0 C 11,7 C 94 % 1010,2 hPa 0,0 l/m 0 min 0 min 0 W/m 16,1 km/h (3 Bft) 97,83 %
10.09.2022 05:42 15,4 C 15,0 C 11,7 C 94 % 1010,3 hPa 0,0 l/m 0 min 0 min 0 W/m 16,1 km/h (3 Bft) 97,87 %
10.09.2022 05:44 15,4 C 15,0 C 11,7 C 94 % 1010,3 hPa 0,0 l/m 0 min 0 min 0 W/m 16,1 km/h (3 Bft) 95,74 %
10.09.2022 05:46 15,4 C 15,0 C 11,1 C 94 % 1010,3 hPa 0,0 l/m 0 min 2 min 0 W/m 19,3 km/h (3 Bft) 97,87 %
10.09.2022 05:48 15,5 C 14,4 C 11,1 C 94 % 1010,3 hPa 0,0 l/m 0 min 2 min 0 W/m 19,3 km/h (3 Bft) 97,87 %
10.09.2022 05:50 15,5 C 14,4 C 11,1 C 94 % 1010,3 hPa 0,0 l/m 0 min 2 min 0 W/m 12,9 km/h (3 Bft) 95,74 %
10.09.2022 05:52 15,5 C 14,4 C 11,1 C 94 % 1010,3 hPa 0,0 l/m 0 min 0 min 0 W/m 19,3 km/h (3 Bft) 97,83 %
10.09.2022 05:54 15,4 C 14,4 C 11,1 C 94 % 1010,3 hPa 0,0 l/m 0 min 2 min 0 W/m 22,5 km/h (4 Bft) 97,87 %
10.09.2022 05:56 15,5 C 14,4 C 11,1 C 94 % 1010,3 hPa 0,0 l/m 0 min 2 min 0 W/m 25,7 km/h (4 Bft) 97,87 %
10.09.2022 05:58 15,4 C 14,4 C 11,1 C 94 % 1010,3 hPa 0,2 l/m 0 min 2 min 0 W/m 12,9 km/h (3 Bft) 97,87 %
10.09.2022 06:00 15,5 C 14,4 C 11,1 C 94 % 1010,3 hPa 0,0 l/m 0 min 2 min 0 W/m 12,9 km/h (3 Bft) 97,87 %
10.09.2022 06:02 15,4 C 14,4 C 11,1 C 94 % 1010,3 hPa 0,0 l/m 0 min 0 min 0 W/m 19,3 km/h (3 Bft) 95,74 %
10.09.2022 06:04 15,4 C 14,4 C 11,1 C 94 % 1010,3 hPa 0,0 l/m 0 min 0 min 0 W/m 16,1 km/h (3 Bft) 97,83 %
10.09.2022 06:08 15,4 C 14,4 C 11,1 C 94 % 1010,3 hPa 0,0 l/m 0 min 0 min 0 W/m 16,1 km/h (3 Bft) 95,51 %
10.09.2022 06:10 15,4 C 14,4 C 11,1 C 94 % 1010,3 hPa 0,0 l/m 0 min 0 min 0 W/m 22,5 km/h (4 Bft) 97,87 %
10.09.2022 06:12 15,4 C 14,4 C 11,1 C 95 % 1010,3 hPa 0,0 l/m 0 min 0 min 0 W/m 16,1 km/h (3 Bft) 97,87 %
10.09.2022 06:14 15,4 C 14,4 C 11,1 C 95 % 1010,3 hPa 0,0 l/m 0 min 0 min 0 W/m 16,1 km/h (3 Bft) 97,87 %
10.09.2022 06:16 15,4 C 14,4 C 11,1 C 95 % 1010,3 hPa 0,0 l/m 0 min 2 min 0 W/m 16,1 km/h (3 Bft) 97,87 %
10.09.2022 06:18 15,4 C 14,4 C 11,1 C 95 % 1010,4 hPa 0,0 l/m 0 min 2 min 0 W/m 25,7 km/h (4 Bft) 100,00 %
10.09.2022 06:20 15,4 C 14,4 C 11,1 C 95 % 1010,3 hPa 0,0 l/m 0 min 2 min 0 W/m 12,9 km/h (3 Bft) 97,87 %
10.09.2022 06:22 15,4 C 14,4 C 11,1 C 95 % 1010,4 hPa 0,0 l/m 0 min 2 min 0 W/m 16,1 km/h (3 Bft) 100,00 %
10.09.2022 06:24 15,4 C 14,4 C 11,1 C 95 % 1010,3 hPa 0,0 l/m 0 min 2 min 0 W/m 16,1 km/h (3 Bft) 100,00 %
10.09.2022 06:26 15,4 C 14,4 C 11,1 C 95 % 1010,3 hPa 0,2 l/m 0 min 2 min 0 W/m 16,1 km/h (3 Bft) 97,87 %
10.09.2022 06:28 15,4 C 14,4 C 11,1 C 95 % 1010,3 hPa 0,0 l/m 0 min 2 min 0 W/m 12,9 km/h (3 Bft) 97,87 %
10.09.2022 06:30 15,3 C 14,4 C 11,1 C 95 % 1010,3 hPa 0,0 l/m 0 min 2 min 0 W/m 12,9 km/h (3 Bft) 97,83 %
10.09.2022 06:32 15,3 C 13,9 C 11,1 C 95 % 1010,3 hPa 0,2 l/m 0 min 2 min 0 W/m 12,9 km/h (3 Bft) 97,87 %
10.09.2022 06:34 15,3 C 13,9 C 11,1 C 95 % 1010,3 hPa 0,0 l/m 0 min 2 min 0 W/m 12,9 km/h (3 Bft) 97,87 %
10.09.2022 06:36 15,3 C 14,4 C 11,1 C 95 % 1010,3 hPa 0,0 l/m 0 min 2 min 0 W/m 9,7 km/h (2 Bft) 96,61 %
10.09.2022 06:38 15,3 C 14,4 C 11,1 C 95 % 1010,3 hPa 0,0 l/m 0 min 2 min 0 W/m 9,7 km/h (2 Bft) 97,14 %
10.09.2022 06:40 15,3 C 14,4 C 11,1 C 95 % 1010,4 hPa 0,0 l/m 0 min 2 min 0 W/m 6,4 km/h (2 Bft) 97,87 %
10.09.2022 06:42 15,3 C 14,4 C 11,1 C 95 % 1010,3 hPa 0,0 l/m 0 min 2 min 0 W/m 9,7 km/h (2 Bft) 97,83 %
10.09.2022 06:44 15,3 C 14,4 C 11,1 C 95 % 1010,3 hPa 0,2 l/m 0 min 2 min 0 W/m 6,4 km/h (2 Bft) 97,87 %
10.09.2022 06:46 15,3 C 13,9 C 11,1 C 95 % 1010,4 hPa 0,0 l/m 0 min 2 min 0 W/m 9,7 km/h (2 Bft) 97,87 %
10.09.2022 06:48 15,3 C 13,9 C 11,1 C 95 % 1010,4 hPa 0,2 l/m 0 min 2 min 0 W/m 9,7 km/h (2 Bft) 95,74 %
10.09.2022 06:50 15,3 C 13,9 C 11,1 C 96 % 1010,4 hPa 0,2 l/m 0 min 2 min 0 W/m 12,9 km/h (3 Bft) 97,87 %
10.09.2022 06:52 15,3 C 13,9 C 11,1 C 96 % 1010,5 hPa 0,0 l/m 0 min 2 min 0 W/m 12,9 km/h (3 Bft) 97,87 %
10.09.2022 06:54 15,3 C 13,9 C 11,1 C 96 % 1010,5 hPa 0,2 l/m 0 min 2 min 0 W/m 9,7 km/h (2 Bft) 97,83 %
10.09.2022 06:56 15,2 C 13,9 C 11,1 C 96 % 1010,5 hPa 0,0 l/m 0 min 2 min 0 W/m 9,7 km/h (2 Bft) 97,87 %
10.09.2022 06:58 15,2 C 13,9 C 11,1 C 96 % 1010,5 hPa 0,0 l/m 0 min 2 min 0 W/m 6,4 km/h (2 Bft) 100,00 %
10.09.2022 07:00 15,2 C 13,9 C 11,1 C 96 % 1010,5 hPa 0,2 l/m 0 min 2 min 0 W/m 6,4 km/h (2 Bft) 100,00 %
10.09.2022 07:02 15,2 C 13,9 C 11,1 C 96 % 1010,5 hPa 0,0 l/m 0 min 2 min 0 W/m 12,9 km/h (3 Bft) 97,87 %
10.09.2022 07:04 15,2 C 13,9 C 11,1 C 96 % 1010,5 hPa 0,2 l/m 0 min 2 min 0 W/m 12,9 km/h (3 Bft) 100,00 %
10.09.2022 07:06 15,2 C 13,9 C 11,1 C 96 % 1010,5 hPa 0,0 l/m 0 min 2 min 0 W/m 6,4 km/h (2 Bft) 100,00 %
10.09.2022 07:08 15,2 C 13,9 C 11,1 C 96 % 1010,5 hPa 0,0 l/m 0 min 2 min 0 W/m 6,4 km/h (2 Bft) 100,00 %
10.09.2022 07:10 15,2 C 13,9 C 11,1 C 96 % 1010,5 hPa 0,0 l/m 0 min 2 min 0 W/m 9,7 km/h (2 Bft) 100,00 %
10.09.2022 07:12 15,2 C 13,9 C 11,1 C 96 % 1010,5 hPa 0,0 l/m 0 min 2 min 0 W/m 9,7 km/h (2 Bft) 100,00 %
10.09.2022 07:14 15,2 C 13,9 C 11,1 C 96 % 1010,5 hPa 0,2 l/m 0 min 2 min 0 W/m 9,7 km/h (2 Bft) 100,00 %
10.09.2022 07:16 15,2 C 13,9 C 11,1 C 96 % 1010,5 hPa 0,0 l/m 0 min 2 min 0 W/m 6,4 km/h (2 Bft) 97,87 %
10.09.2022 07:18 15,2 C 13,9 C 11,1 C 96 % 1010,5 hPa 0,0 l/m 0 min 2 min 0 W/m 9,7 km/h (2 Bft) 100,00 %
10.09.2022 07:20 15,2 C 13,9 C 11,1 C 96 % 1010,5 hPa 0,0 l/m 0 min 2 min 0 W/m 9,7 km/h (2 Bft) 97,87 %
10.09.2022 07:22 15,2 C 13,9 C 11,1 C 96 % 1010,5 hPa 0,0 l/m 0 min 2 min 0 W/m 3,2 km/h (1 Bft) 100,00 %
10.09.2022 07:24 15,1 C 13,9 C 11,1 C 96 % 1010,6 hPa 0,2 l/m 0 min 2 min 0 W/m 6,4 km/h (2 Bft) 97,87 %
10.09.2022 07:26 15,1 C 13,9 C 11,1 C 96 % 1010,5 hPa 0,0 l/m 0 min 2 min 0 W/m 9,7 km/h (2 Bft) 97,87 %
10.09.2022 07:28 15,1 C 13,9 C 11,1 C 96 % 1010,5 hPa 0,0 l/m 0 min 2 min 2 W/m 9,7 km/h (2 Bft) 97,87 %
10.09.2022 07:30 15,1 C 13,9 C 11,1 C 96 % 1010,5 hPa 0,2 l/m 0 min 2 min 6 W/m 9,7 km/h (2 Bft) 97,83 %
10.09.2022 07:32 15,1 C 13,9 C 11,1 C 96 % 1010,6 hPa 0,0 l/m 0 min 2 min 10 W/m 6,4 km/h (2 Bft) 97,87 %
10.09.2022 07:34 15,1 C 13,9 C 11,1 C 96 % 1010,6 hPa 0,2 l/m 0 min 2 min 12 W/m 12,9 km/h (3 Bft) 95,74 %
10.09.2022 07:36 15,1 C 13,9 C 11,1 C 96 % 1010,5 hPa 0,0 l/m 0 min 2 min 14 W/m 6,4 km/h (2 Bft) 98,31 %
10.09.2022 07:38 15,1 C 13,9 C 11,1 C 97 % 1010,6 hPa 0,2 l/m 0 min 2 min 14 W/m 3,2 km/h (1 Bft) 97,14 %
10.09.2022 07:40 15,1 C 13,9 C 11,1 C 97 % 1010,6 hPa 0,0 l/m 0 min 2 min 13 W/m 6,4 km/h (2 Bft) 97,87 %
10.09.2022 07:42 15,1 C 13,9 C 11,1 C 97 % 1010,6 hPa 0,0 l/m 0 min 2 min 12 W/m 0,0 km/h (0 Bft) 97,83 %
10.09.2022 07:44 15,1 C 13,9 C 11,1 C 97 % 1010,6 hPa 0,0 l/m 0 min 2 min 12 W/m 3,2 km/h (1 Bft) 97,87 %
10.09.2022 07:46 15,1 C 13,9 C 11,1 C 97 % 1010,6 hPa 0,0 l/m 0 min 0 min 13 W/m 3,2 km/h (1 Bft) 97,87 %
10.09.2022 07:48 15,1 C 13,9 C 11,1 C 97 % 1010,6 hPa 0,0 l/m 0 min 2 min 14 W/m 3,2 km/h (1 Bft) 97,87 %
10.09.2022 07:50 15,1 C 14,4 C 11,1 C 97 % 1010,6 hPa 0,0 l/m 0 min 2 min 14 W/m 3,2 km/h (1 Bft) 95,74 %
10.09.2022 07:52 15,1 C 13,9 C 11,1 C 97 % 1010,7 hPa 0,0 l/m 0 min 2 min 15 W/m 3,2 km/h (1 Bft) 97,83 %
10.09.2022 07:54 15,1 C 14,4 C 11,1 C 97 % 1010,7 hPa 0,0 l/m 0 min 2 min 16 W/m 3,2 km/h (1 Bft) 97,87 %
10.09.2022 07:56 15,1 C 14,4 C 11,1 C 97 % 1010,7 hPa 0,2 l/m 0 min 2 min 15 W/m 6,4 km/h (2 Bft) 97,87 %
10.09.2022 07:58 15,1 C 14,4 C 11,1 C 97 % 1010,7 hPa 0,0 l/m 0 min 2 min 14 W/m 3,2 km/h (1 Bft) 97,87 %
10.09.2022 08:00 15,1 C 14,4 C 11,1 C 97 % 1010,7 hPa 0,0 l/m 0 min 2 min 12 W/m 6,4 km/h (2 Bft) 95,74 %
10.09.2022 08:02 15,1 C 14,4 C 11,1 C 97 % 1010,7 hPa 0,2 l/m 0 min 2 min 11 W/m 6,4 km/h (2 Bft) 95,74 %
10.09.2022 08:04 15,1 C 14,4 C 11,1 C 97 % 1010,8 hPa 0,0 l/m 0 min 2 min 12 W/m 3,2 km/h (1 Bft) 97,83 %
10.09.2022 08:06 15,1 C 14,4 C 11,1 C 97 % 1010,8 hPa 0,0 l/m 0 min 2 min 11 W/m 6,4 km/h (2 Bft) 93,22 %
10.09.2022 08:08 15,1 C 14,4 C 11,1 C 97 % 1010,8 hPa 0,0 l/m 0 min 2 min 11 W/m 3,2 km/h (1 Bft) 97,87 %
10.09.2022 08:10 15,1 C 14,4 C 11,1 C 97 % 1010,8 hPa 0,2 l/m 0 min 2 min 11 W/m 6,4 km/h (2 Bft) 97,14 %
10.09.2022 08:12 15,1 C 13,9 C 11,1 C 97 % 1010,8 hPa 0,0 l/m 0 min 2 min 12 W/m 3,2 km/h (1 Bft) 97,87 %
10.09.2022 08:14 15,1 C 14,4 C 11,1 C 97 % 1010,8 hPa 0,0 l/m 0 min 2 min 13 W/m 3,2 km/h (1 Bft) 100,00 %
10.09.2022 08:16 15,1 C 14,4 C 11,1 C 97 % 1010,8 hPa 0,0 l/m 0 min 2 min 14 W/m 3,2 km/h (1 Bft) 95,65 %
10.09.2022 08:18 15,1 C 13,9 C 11,1 C 97 % 1010,8 hPa 0,0 l/m 0 min 2 min 15 W/m 3,2 km/h (1 Bft) 95,74 %
10.09.2022 08:20 15,1 C 14,4 C 11,1 C 97 % 1010,7 hPa 0,0 l/m 0 min 2 min 17 W/m 0,0 km/h (0 Bft) 95,74 %
10.09.2022 08:22 15,1 C 14,4 C 11,1 C 97 % 1010,8 hPa 0,2 l/m 0 min 2 min 19 W/m 3,2 km/h (1 Bft) 95,74 %
10.09.2022 08:24 15,1 C 14,4 C 11,1 C 97 % 1010,8 hPa 0,0 l/m 0 min 2 min 21 W/m 3,2 km/h (1 Bft) 89,36 %
10.09.2022 08:26 15,1 C 14,4 C 11,1 C 97 % 1010,8 hPa 0,2 l/m 0 min 2 min 24 W/m 3,2 km/h (1 Bft) 93,62 %
10.09.2022 08:28 15,1 C 14,4 C 11,1 C 97 % 1010,8 hPa 0,0 l/m 0 min 2 min 26 W/m 3,2 km/h (1 Bft) 91,30 %
10.09.2022 08:30 15,1 C 14,4 C 11,1 C 97 % 1010,8 hPa 0,0 l/m 0 min 2 min 30 W/m 9,7 km/h (2 Bft) 95,74 %
10.09.2022 08:32 15,1 C 14,4 C 11,1 C 97 % 1010,9 hPa 0,0 l/m 0 min 2 min 34 W/m 6,4 km/h (2 Bft) 95,74 %
10.09.2022 08:34 15,1 C 14,4 C 11,1 C 97 % 1010,9 hPa 0,2 l/m 0 min 2 min 38 W/m 9,7 km/h (2 Bft) 95,74 %
10.09.2022 08:36 15,1 C 14,4 C 11,1 C 97 % 1010,9 hPa 0,0 l/m 0 min 2 min 40 W/m 3,2 km/h (1 Bft) 96,55 %
10.09.2022 08:38 15,1 C 14,4 C 11,1 C 97 % 1010,9 hPa 0,2 l/m 0 min 2 min 40 W/m 3,2 km/h (1 Bft) 94,44 %
10.09.2022 08:40 15,1 C 14,4 C 11,1 C 97 % 1011,0 hPa 0,0 l/m 0 min 2 min 38 W/m 6,4 km/h (2 Bft) 95,65 %
10.09.2022 08:42 15,1 C 14,4 C 11,1 C 97 % 1011,0 hPa 0,0 l/m 0 min 2 min 33 W/m 6,4 km/h (2 Bft) 95,74 %
10.09.2022 08:44 15,1 C 14,4 C 11,1 C 97 % 1010,9 hPa 0,0 l/m 0 min 2 min 30 W/m 6,4 km/h (2 Bft) 93,62 %
10.09.2022 08:46 15,1 C 14,4 C 11,1 C 97 % 1011,0 hPa 0,2 l/m 0 min 2 min 25 W/m 3,2 km/h (1 Bft) 95,74 %
10.09.2022 08:48 15,1 C 14,4 C 11,1 C 97 % 1011,0 hPa 0,0 l/m 0 min 2 min 22 W/m 3,2 km/h (1 Bft) 93,62 %
10.09.2022 08:50 15,1 C 14,4 C 11,1 C 97 % 1011,0 hPa 0,2 l/m 0 min 2 min 19 W/m 6,4 km/h (2 Bft) 93,62 %
10.09.2022 08:52 15,1 C 14,4 C 11,1 C 98 % 1011,0 hPa 0,0 l/m 0 min 2 min 17 W/m 3,2 km/h (1 Bft) 97,83 %
10.09.2022 08:54 15,2 C 14,4 C 11,1 C 98 % 1010,9 hPa 0,0 l/m 0 min 2 min 16 W/m 3,2 km/h (1 Bft) 93,62 %
10.09.2022 08:56 15,2 C 14,4 C 11,1 C 98 % 1011,0 hPa 0,0 l/m 0 min 2 min 15 W/m 6,4 km/h (2 Bft) 97,87 %
10.09.2022 08:58 15,2 C 14,4 C 11,1 C 98 % 1011,0 hPa 0,2 l/m 0 min 2 min 16 W/m 3,2 km/h (1 Bft) 97,87 %
10.09.2022 09:00 15,2 C 14,4 C 11,1 C 98 % 1011,1 hPa 0,0 l/m 0 min 2 min 18 W/m 3,2 km/h (1 Bft) 97,87 %
10.09.2022 09:02 15,2 C 14,4 C 11,1 C 98 % 1011,0 hPa 0,0 l/m 0 min 2 min 21 W/m 3,2 km/h (1 Bft) 100,00 %
10.09.2022 09:04 15,2 C 14,4 C 11,1 C 98 % 1011,0 hPa 0,0 l/m 0 min 2 min 25 W/m 12,9 km/h (3 Bft) 100,00 %
10.09.2022 09:06 15,1 C 14,4 C 11,1 C 98 % 1011,0 hPa 0,2 l/m 0 min 2 min 30 W/m 6,4 km/h (2 Bft) 100,00 %
10.09.2022 09:08 15,2 C 14,4 C 11,1 C 98 % 1011,0 hPa 0,0 l/m 0 min 2 min 38 W/m 3,2 km/h (1 Bft) 100,00 %
10.09.2022 09:10 15,2 C 14,4 C 11,7 C 98 % 1011,0 hPa 0,0 l/m 0 min 2 min 49 W/m 6,4 km/h (2 Bft) 100,00 %
10.09.2022 09:12 15,2 C 14,4 C 11,7 C 98 % 1011,1 hPa 0,0 l/m 0 min 0 min 56 W/m 0,0 km/h (0 Bft) 97,87 %
10.09.2022 09:14 15,2 C 14,4 C 11,7 C 98 % 1011,0 hPa 0,0 l/m 0 min 0 min 62 W/m 0,0 km/h (0 Bft) 100,00 %
10.09.2022 09:16 15,2 C 14,4 C 11,7 C 98 % 1011,0 hPa 0,0 l/m 0 min 2 min 64 W/m 0,0 km/h (0 Bft) 97,87 %
10.09.2022 09:18 15,2 C 14,4 C 11,7 C 98 % 1011,1 hPa 0,0 l/m 0 min 0 min 67 W/m 0,0 km/h (0 Bft) 100,00 %
10.09.2022 09:20 15,2 C 14,4 C 11,7 C 98 % 1011,1 hPa 0,0 l/m 0 min 0 min 71 W/m 0,0 km/h (0 Bft) 100,00 %
10.09.2022 09:22 15,2 C 14,4 C 11,7 C 98 % 1011,0 hPa 0,0 l/m 0 min 2 min 77 W/m 12,9 km/h (3 Bft) 100,00 %
10.09.2022 09:24 15,3 C 14,4 C 11,7 C 98 % 1011,0 hPa 0,0 l/m 0 min 0 min 83 W/m 6,4 km/h (2 Bft) 100,00 %
10.09.2022 09:26 15,3 C 15,0 C 11,7 C 98 % 1011,0 hPa 0,0 l/m 0 min 0 min 85 W/m 19,3 km/h (3 Bft) 100,00 %
10.09.2022 09:28 15,3 C 15,0 C 11,7 C 98 % 1011,1 hPa 0,0 l/m 0 min 0 min 78 W/m 9,7 km/h (2 Bft) 100,00 %
10.09.2022 09:30 15,3 C 15,0 C 11,7 C 98 % 1011,1 hPa 0,0 l/m 0 min 0 min 69 W/m 12,9 km/h (3 Bft) 100,00 %
10.09.2022 09:32 15,4 C 15,0 C 11,7 C 98 % 1011,1 hPa 0,0 l/m 0 min 0 min 63 W/m 16,1 km/h (3 Bft) 100,00 %
10.09.2022 09:34 15,4 C 15,0 C 11,7 C 98 % 1011,1 hPa 0,0 l/m 0 min 0 min 52 W/m 16,1 km/h (3 Bft) 100,00 %
10.09.2022 09:36 15,4 C 15,0 C 11,7 C 98 % 1011,1 hPa 0,0 l/m 0 min 0 min 57 W/m 6,4 km/h (2 Bft) 100,00 %
10.09.2022 09:38 15,4 C 15,0 C 11,7 C 98 % 1011,1 hPa 0,0 l/m 0 min 0 min 72 W/m 12,9 km/h (3 Bft) 100,00 %
10.09.2022 09:40 15,4 C 15,0 C 11,7 C 98 % 1011,1 hPa 0,0 l/m 0 min 2 min 76 W/m 12,9 km/h (3 Bft) 100,00 %
10.09.2022 09:42 15,4 C 15,0 C 11,7 C 98 % 1011,2 hPa 0,0 l/m 0 min 2 min 84 W/m 12,9 km/h (3 Bft) 100,00 %
10.09.2022 09:44 15,4 C 15,0 C 11,7 C 98 % 1011,2 hPa 0,0 l/m 0 min 0 min 102 W/m 16,1 km/h (3 Bft) 100,00 %
10.09.2022 09:46 15,4 C 15,0 C 11,7 C 98 % 1011,2 hPa 0,0 l/m 0 min 2 min 122 W/m 9,7 km/h (2 Bft) 100,00 %
10.09.2022 09:48 15,5 C 15,0 C 11,7 C 98 % 1011,2 hPa 0,0 l/m 0 min 2 min 137 W/m 9,7 km/h (2 Bft) 97,87 %
10.09.2022 09:50 15,6 C 15,6 C 11,7 C 98 % 1011,2 hPa 0,0 l/m 0 min 2 min 136 W/m 9,7 km/h (2 Bft) 97,83 %
10.09.2022 09:52 15,6 C 15,6 C 12,2 C 98 % 1011,2 hPa 0,0 l/m 0 min 2 min 121 W/m 6,4 km/h (2 Bft) 95,74 %
10.09.2022 09:54 15,6 C 15,6 C 12,2 C 98 % 1011,2 hPa 0,0 l/m 0 min 2 min 105 W/m 6,4 km/h (2 Bft) 97,87 %
10.09.2022 09:56 15,6 C 15,6 C 12,2 C 98 % 1011,2 hPa 0,0 l/m 0 min 2 min 101 W/m 3,2 km/h (1 Bft) 100,00 %
10.09.2022 09:58 15,6 C 15,6 C 12,2 C 98 % 1011,2 hPa 0,0 l/m 0 min 0 min 105 W/m 16,1 km/h (3 Bft) 100,00 %
10.09.2022 10:00 15,6 C 15,6 C 11,7 C 98 % 1011,1 hPa 0,0 l/m 0 min 2 min 107 W/m 6,4 km/h (2 Bft) 100,00 %
10.09.2022 10:02 15,7 C 15,6 C 11,7 C 98 % 1011,1 hPa 0,0 l/m 0 min 0 min 110 W/m 6,4 km/h (2 Bft) 100,00 %
10.09.2022 10:04 15,7 C 15,6 C 12,2 C 98 % 1011,1 hPa 0,0 l/m 0 min 0 min 117 W/m 12,9 km/h (3 Bft) 100,00 %
10.09.2022 10:06 15,7 C 15,6 C 12,2 C 98 % 1011,1 hPa 0,0 l/m 0 min 0 min 118 W/m 12,9 km/h (3 Bft) 98,31 %
10.09.2022 10:08 15,7 C 15,6 C 12,2 C 98 % 1011,2 hPa 0,0 l/m 0 min 0 min 115 W/m 12,9 km/h (3 Bft) 100,00 %
10.09.2022 10:10 15,7 C 15,6 C 12,2 C 98 % 1011,2 hPa 0,0 l/m 0 min 0 min 105 W/m 16,1 km/h (3 Bft) 97,87 %
10.09.2022 10:12 15,7 C 15,6 C 12,2 C 98 % 1011,1 hPa 0,0 l/m 0 min 0 min 108 W/m 9,7 km/h (2 Bft) 97,87 %
10.09.2022 10:14 15,8 C 15,6 C 12,2 C 98 % 1011,2 hPa 0,0 l/m 0 min 0 min 135 W/m 19,3 km/h (3 Bft) 97,83 %
10.09.2022 10:16 15,8 C 15,6 C 12,2 C 98 % 1011,2 hPa 0,0 l/m 0 min 0 min 129 W/m 19,3 km/h (3 Bft) 95,74 %
10.09.2022 10:18 15,8 C 15,6 C 12,2 C 98 % 1011,2 hPa 0,0 l/m 0 min 0 min 101 W/m 12,9 km/h (3 Bft) 95,74 %
10.09.2022 10:20 15,8 C 15,6 C 12,2 C 98 % 1011,2 hPa 0,0 l/m 0 min 0 min 74 W/m 16,1 km/h (3 Bft) 95,74 %
10.09.2022 10:22 15,8 C 15,6 C 11,7 C 98 % 1011,1 hPa 0,0 l/m 0 min 0 min 64 W/m 22,5 km/h (4 Bft) 95,74 %
10.09.2022 10:24 15,8 C 15,6 C 11,7 C 98 % 1011,1 hPa 0,0 l/m 0 min 2 min 60 W/m 12,9 km/h (3 Bft) 95,74 %
10.09.2022 10:26 15,8 C 15,6 C 12,2 C 98 % 1011,1 hPa 0,0 l/m 0 min 2 min 61 W/m 9,7 km/h (2 Bft) 91,49 %
10.09.2022 10:28 15,8 C 15,6 C 12,2 C 98 % 1011,1 hPa 0,0 l/m 0 min 2 min 71 W/m 12,9 km/h (3 Bft) 95,65 %
10.09.2022 10:30 15,8 C 15,6 C 12,2 C 98 % 1011,2 hPa 0,0 l/m 0 min 2 min 75 W/m 19,3 km/h (3 Bft) 95,74 %
10.09.2022 10:32 15,8 C 15,6 C 12,2 C 98 % 1011,2 hPa 0,2 l/m 0 min 2 min 61 W/m 19,3 km/h (3 Bft) 95,74 %
10.09.2022 10:34 15,8 C 15,6 C 12,2 C 98 % 1011,1 hPa 0,0 l/m 0 min 2 min 55 W/m 19,3 km/h (3 Bft) 95,74 %
10.09.2022 10:36 15,8 C 15,6 C 12,2 C 98 % 1011,2 hPa 0,0 l/m 0 min 2 min 46 W/m 12,9 km/h (3 Bft) 94,83 %
10.09.2022 10:38 15,8 C 15,6 C 11,7 C 98 % 1011,1 hPa 0,2 l/m 0 min 2 min 47 W/m 25,7 km/h (4 Bft) 94,29 %
10.09.2022 10:40 15,8 C 15,0 C 11,7 C 98 % 1011,1 hPa 0,2 l/m 0 min 2 min 44 W/m 12,9 km/h (3 Bft) 95,74 %
10.09.2022 10:42 15,8 C 15,0 C 11,7 C 98 % 1011,1 hPa 0,2 l/m 0 min 2 min 40 W/m 12,9 km/h (3 Bft) 93,62 %
10.09.2022 10:44 15,8 C 15,0 C 11,7 C 98 % 1011,2 hPa 0,2 l/m 0 min 2 min 27 W/m 32,2 km/h (5 Bft) 95,74 %
10.09.2022 10:46 15,8 C 15,0 C 11,7 C 98 % 1011,2 hPa 0,2 l/m 0 min 2 min 30 W/m 25,7 km/h (4 Bft) 91,49 %
10.09.2022 10:48 15,8 C 14,4 C 11,7 C 98 % 1011,2 hPa 0,4 l/m 0 min 2 min 28 W/m 32,2 km/h (5 Bft) 95,74 %
10.09.2022 10:50 15,7 C 14,4 C 11,7 C 98 % 1011,1 hPa 0,4 l/m 0 min 2 min 23 W/m 22,5 km/h (4 Bft) 97,83 %
10.09.2022 10:52 15,7 C 14,4 C 11,7 C 98 % 1011,1 hPa 0,4 l/m 0 min 2 min 19 W/m 19,3 km/h (3 Bft) 93,62 %
10.09.2022 10:54 15,7 C 14,4 C 11,7 C 98 % 1011,1 hPa 0,0 l/m 0 min 2 min 26 W/m 19,3 km/h (3 Bft) 97,87 %
10.09.2022 10:56 15,7 C 14,4 C 11,7 C 98 % 1011,1 hPa 0,0 l/m 0 min 2 min 27 W/m 9,7 km/h (2 Bft) 95,74 %
10.09.2022 10:58 15,7 C 14,4 C 11,7 C 98 % 1011,1 hPa 0,0 l/m 0 min 2 min 24 W/m 12,9 km/h (3 Bft) 97,87 %
10.09.2022 11:00 15,7 C 14,4 C 11,7 C 98 % 1011,1 hPa 0,2 l/m 0 min 2 min 24 W/m 19,3 km/h (3 Bft) 100,00 %
10.09.2022 11:02 15,7 C 14,4 C 11,7 C 98 % 1011,0 hPa 0,4 l/m 0 min 2 min 27 W/m 22,5 km/h (4 Bft) 100,00 %
10.09.2022 11:04 15,7 C 14,4 C 11,7 C 98 % 1011,0 hPa 0,0 l/m 0 min 2 min 44 W/m 12,9 km/h (3 Bft) 97,87 %
10.09.2022 11:06 15,7 C 14,4 C 11,7 C 98 % 1011,1 hPa 0,2 l/m 0 min 2 min 43 W/m 12,9 km/h (3 Bft) 96,61 %
10.09.2022 11:08 15,7 C 14,4 C 11,7 C 98 % 1011,1 hPa 0,0 l/m 0 min 2 min 28 W/m 25,7 km/h (4 Bft) 97,14 %
10.09.2022 11:10 15,7 C 14,4 C 11,7 C 98 % 1011,1 hPa 0,0 l/m 0 min 2 min 25 W/m 16,1 km/h (3 Bft) 97,87 %
10.09.2022 11:12 15,7 C 14,4 C 11,7 C 98 % 1011,1 hPa 0,0 l/m 0 min 2 min 37 W/m 16,1 km/h (3 Bft) 97,87 %
10.09.2022 11:14 15,7 C 14,4 C 11,7 C 98 % 1011,2 hPa 0,0 l/m 0 min 0 min 44 W/m 32,2 km/h (5 Bft) 97,83 %
10.09.2022 11:16 15,7 C 14,4 C 11,7 C 98 % 1011,1 hPa 0,0 l/m 0 min 0 min 48 W/m 19,3 km/h (3 Bft) 95,74 %
10.09.2022 11:18 15,7 C 14,4 C 11,7 C 98 % 1011,1 hPa 0,0 l/m 0 min 0 min 49 W/m 16,1 km/h (3 Bft) 97,87 %
10.09.2022 11:20 15,7 C 15,0 C 11,7 C 98 % 1011,1 hPa 0,0 l/m 0 min 0 min 101 W/m 25,7 km/h (4 Bft) 97,87 %
10.09.2022 11:22 15,7 C 15,0 C 11,7 C 98 % 1011,2 hPa 0,0 l/m 0 min 0 min 157 W/m 19,3 km/h (3 Bft) 97,87 %
10.09.2022 11:24 15,7 C 15,0 C 12,2 C 98 % 1011,2 hPa 0,0 l/m 0 min 0 min 151 W/m 29,0 km/h (5 Bft) 97,87 %
10.09.2022 11:26 15,8 C 15,0 C 12,2 C 98 % 1011,1 hPa 0,0 l/m 0 min 0 min 176 W/m 29,0 km/h (5 Bft) 97,83 %
10.09.2022 11:28 15,8 C 15,0 C 12,2 C 98 % 1011,1 hPa 0,0 l/m 0 min 0 min 147 W/m 25,7 km/h (4 Bft) 95,74 %
10.09.2022 11:30 15,8 C 15,0 C 12,2 C 98 % 1011,1 hPa 0,0 l/m 0 min 0 min 82 W/m 19,3 km/h (3 Bft) 95,74 %
10.09.2022 11:32 15,8 C 15,0 C 12,2 C 98 % 1011,1 hPa 0,0 l/m 0 min 0 min 51 W/m 16,1 km/h (3 Bft) 97,87 %
10.09.2022 11:34 15,8 C 15,0 C 12,2 C 98 % 1011,2 hPa 0,0 l/m 0 min 0 min 47 W/m 25,7 km/h (4 Bft) 97,87 %
10.09.2022 11:36 15,8 C 15,0 C 11,7 C 98 % 1011,1 hPa 0,0 l/m 0 min 2 min 65 W/m 22,5 km/h (4 Bft) 94,29 %
10.09.2022 11:38 15,8 C 15,0 C 11,7 C 98 % 1011,1 hPa 0,0 l/m 0 min 2 min 69 W/m 16,1 km/h (3 Bft) 96,77 %
10.09.2022 11:40 15,8 C 15,0 C 12,2 C 98 % 1011,1 hPa 0,0 l/m 0 min 2 min 75 W/m 32,2 km/h (5 Bft) 97,87 %
10.09.2022 11:42 15,8 C 15,0 C 11,7 C 98 % 1011,1 hPa 0,0 l/m 0 min 2 min 58 W/m 25,7 km/h (4 Bft) 97,87 %
10.09.2022 11:44 15,8 C 15,0 C 11,7 C 98 % 1011,1 hPa 0,0 l/m 0 min 2 min 43 W/m 19,3 km/h (3 Bft) 97,87 %
10.09.2022 11:46 15,8 C 15,0 C 11,7 C 98 % 1011,2 hPa 0,2 l/m 0 min 2 min 34 W/m 32,2 km/h (5 Bft) 97,87 %
10.09.2022 11:48 15,8 C 15,0 C 11,7 C 98 % 1011,1 hPa 0,2 l/m 0 min 2 min 38 W/m 29,0 km/h (5 Bft) 97,87 %
10.09.2022 11:50 15,8 C 15,0 C 11,7 C 98 % 1011,1 hPa 0,0 l/m 0 min 2 min 44 W/m 16,1 km/h (3 Bft) 97,83 %
10.09.2022 11:52 15,8 C 15,0 C 11,7 C 98 % 1011,1 hPa 0,0 l/m 0 min 0 min 42 W/m 48,3 km/h (6 Bft) 97,87 %
10.09.2022 11:54 15,7 C 15,0 C 11,7 C 98 % 1011,0 hPa 0,0 l/m 0 min 0 min 41 W/m 22,5 km/h (4 Bft) 97,87 %
10.09.2022 11:56 15,7 C 15,0 C 11,7 C 98 % 1011,1 hPa 0,0 l/m 0 min 0 min 44 W/m 32,2 km/h (5 Bft) 100,00 %
10.09.2022 11:58 15,7 C 15,0 C 11,7 C 98 % 1011,2 hPa 0,0 l/m 0 min 0 min 39 W/m 25,7 km/h (4 Bft) 100,00 %
10.09.2022 12:00 15,7 C 15,0 C 11,7 C 98 % 1011,3 hPa 0,0 l/m 0 min 0 min 37 W/m 12,9 km/h (3 Bft) 100,00 %
10.09.2022 12:02 15,8 C 15,0 C 11,7 C 98 % 1011,2 hPa 0,0 l/m 0 min 2 min 47 W/m 16,1 km/h (3 Bft) 100,00 %
10.09.2022 12:04 15,8 C 15,0 C 11,7 C 98 % 1011,2 hPa 0,0 l/m 0 min 0 min 45 W/m 6,4 km/h (2 Bft) 100,00 %
10.09.2022 12:08 15,8 C 15,0 C 11,7 C 98 % 1011,2 hPa 0,0 l/m 0 min 0 min 22 W/m 22,5 km/h (4 Bft) 98,00 %
10.09.2022 12:10 15,8 C 15,0 C 11,7 C 98 % 1011,2 hPa 0,0 l/m 0 min 0 min 28 W/m 9,7 km/h (2 Bft) 100,00 %
10.09.2022 12:12 15,8 C 15,0 C 12,2 C 98 % 1011,2 hPa 0,0 l/m 0 min 0 min 31 W/m 9,7 km/h (2 Bft) 100,00 %
10.09.2022 12:14 15,8 C 15,0 C 12,2 C 98 % 1011,2 hPa 0,0 l/m 0 min 0 min 33 W/m 6,4 km/h (2 Bft) 97,87 %
10.09.2022 12:16 15,8 C 15,0 C 12,2 C 98 % 1011,2 hPa 0,0 l/m 0 min 2 min 38 W/m 12,9 km/h (3 Bft) 95,74 %
10.09.2022 12:18 15,8 C 15,0 C 12,2 C 98 % 1011,2 hPa 0,0 l/m 0 min 2 min 38 W/m 12,9 km/h (3 Bft) 97,87 %
10.09.2022 12:20 15,8 C 15,0 C 12,2 C 98 % 1011,2 hPa 0,0 l/m 0 min 2 min 31 W/m 16,1 km/h (3 Bft) 97,87 %
10.09.2022 12:22 15,8 C 15,0 C 12,2 C 98 % 1011,2 hPa 0,0 l/m 0 min 2 min 43 W/m 12,9 km/h (3 Bft) 97,87 %
10.09.2022 12:24 15,8 C 15,0 C 12,2 C 98 % 1011,2 hPa 0,0 l/m 0 min 2 min 46 W/m 12,9 km/h (3 Bft) 97,83 %
10.09.2022 12:26 15,8 C 15,0 C 12,2 C 98 % 1011,3 hPa 0,0 l/m 0 min 0 min 57 W/m 25,7 km/h (4 Bft) 97,87 %
10.09.2022 12:28 15,8 C 15,0 C 12,2 C 98 % 1011,1 hPa 0,0 l/m 0 min 0 min 33 W/m 16,1 km/h (3 Bft) 97,87 %
10.09.2022 12:30 15,8 C 15,0 C 12,2 C 98 % 1011,2 hPa 0,0 l/m 0 min 0 min 29 W/m 6,4 km/h (2 Bft) 95,74 %
10.09.2022 12:32 15,8 C 15,0 C 12,2 C 98 % 1011,2 hPa 0,0 l/m 0 min 0 min 29 W/m 12,9 km/h (3 Bft) 95,74 %
10.09.2022 12:34 15,8 C 15,0 C 12,2 C 98 % 1011,2 hPa 0,0 l/m 0 min 0 min 46 W/m 22,5 km/h (4 Bft) 97,87 %
10.09.2022 12:36 15,8 C 15,0 C 12,2 C 98 % 1011,2 hPa 0,0 l/m 0 min 0 min 64 W/m 35,4 km/h (5 Bft) 97,83 %
10.09.2022 12:38 15,8 C 15,0 C 12,2 C 98 % 1011,2 hPa 0,0 l/m 0 min 0 min 87 W/m 25,7 km/h (4 Bft) 97,87 %
10.09.2022 12:40 15,8 C 15,6 C 12,2 C 98 % 1011,3 hPa 0,0 l/m 0 min 0 min 107 W/m 22,5 km/h (4 Bft) 97,87 %
10.09.2022 12:42 15,9 C 15,6 C 12,2 C 98 % 1011,3 hPa 0,0 l/m 0 min 0 min 98 W/m 16,1 km/h (3 Bft) 97,87 %
10.09.2022 12:44 15,9 C 15,6 C 12,2 C 98 % 1011,2 hPa 0,0 l/m 0 min 0 min 111 W/m 16,1 km/h (3 Bft) 97,87 %
10.09.2022 12:46 15,9 C 15,6 C 12,2 C 98 % 1011,3 hPa 0,0 l/m 0 min 0 min 97 W/m 22,5 km/h (4 Bft) 97,83 %
10.09.2022 12:48 15,9 C 15,6 C 12,2 C 98 % 1011,3 hPa 0,0 l/m 0 min 2 min 69 W/m 16,1 km/h (3 Bft) 100,00 %
10.09.2022 12:50 16,0 C 15,6 C 12,2 C 98 % 1011,3 hPa 0,0 l/m 0 min 2 min 90 W/m 12,9 km/h (3 Bft) 100,00 %
10.09.2022 12:52 16,0 C 15,6 C 12,2 C 98 % 1011,3 hPa 0,0 l/m 0 min 0 min 109 W/m 19,3 km/h (3 Bft) 100,00 %
10.09.2022 12:54 16,1 C 15,6 C 12,2 C 98 % 1011,3 hPa 0,0 l/m 0 min 0 min 108 W/m 19,3 km/h (3 Bft) 100,00 %
10.09.2022 12:56 16,1 C 15,6 C 12,2 C 98 % 1011,3 hPa 0,0 l/m 0 min 0 min 88 W/m 12,9 km/h (3 Bft) 100,00 %
10.09.2022 12:58 16,1 C 15,6 C 12,2 C 98 % 1011,3 hPa 0,2 l/m 0 min 2 min 46 W/m 12,9 km/h (3 Bft) 100,00 %
10.09.2022 13:00 16,1 C 15,6 C 12,2 C 98 % 1011,4 hPa 0,0 l/m 0 min 2 min 61 W/m 12,9 km/h (3 Bft) 100,00 %
10.09.2022 13:02 16,1 C 15,6 C 12,2 C 98 % 1011,3 hPa 0,0 l/m 0 min 2 min 78 W/m 12,9 km/h (3 Bft) 97,87 %
10.09.2022 13:04 16,1 C 15,6 C 12,2 C 98 % 1011,3 hPa 0,0 l/m 0 min 0 min 80 W/m 16,1 km/h (3 Bft) 97,87 %
10.09.2022 13:06 16,1 C 15,6 C 12,2 C 98 % 1011,3 hPa 0,0 l/m 0 min 2 min 48 W/m 16,1 km/h (3 Bft) 97,87 %
10.09.2022 13:08 16,1 C 15,6 C 12,2 C 98 % 1011,3 hPa 0,0 l/m 0 min 2 min 60 W/m 12,9 km/h (3 Bft) 97,87 %
10.09.2022 13:10 16,1 C 15,6 C 12,2 C 98 % 1011,4 hPa 0,0 l/m 0 min 2 min 50 W/m 12,9 km/h (3 Bft) 97,83 %
10.09.2022 13:12 16,1 C 15,6 C 12,2 C 98 % 1011,3 hPa 0,0 l/m 0 min 2 min 76 W/m 9,7 km/h (2 Bft) 97,87 %
10.09.2022 13:14 16,1 C 15,6 C 12,2 C 98 % 1011,4 hPa 0,0 l/m 0 min 0 min 102 W/m 19,3 km/h (3 Bft) 97,87 %
10.09.2022 13:16 16,1 C 15,6 C 12,2 C 98 % 1011,3 hPa 0,0 l/m 0 min 2 min 146 W/m 12,9 km/h (3 Bft) 95,74 %
10.09.2022 13:18 16,2 C 16,1 C 12,2 C 98 % 1011,4 hPa 0,0 l/m 0 min 2 min 162 W/m 19,3 km/h (3 Bft) 97,87 %
10.09.2022 13:20 16,2 C 16,1 C 12,8 C 98 % 1011,4 hPa 0,0 l/m 0 min 2 min 174 W/m 12,9 km/h (3 Bft) 97,87 %
10.09.2022 13:22 16,3 C 16,1 C 12,8 C 98 % 1011,4 hPa 0,0 l/m 0 min 0 min 167 W/m 12,9 km/h (3 Bft) 97,83 %
10.09.2022 13:24 16,3 C 16,1 C 12,8 C 98 % 1011,3 hPa 0,0 l/m 0 min 0 min 156 W/m 16,1 km/h (3 Bft) 97,87 %
10.09.2022 13:26 16,3 C 16,1 C 12,8 C 98 % 1011,3 hPa 0,0 l/m 0 min 0 min 185 W/m 16,1 km/h (3 Bft) 97,87 %
10.09.2022 13:28 16,4 C 16,1 C 12,8 C 98 % 1011,3 hPa 0,0 l/m 0 min 0 min 223 W/m 12,9 km/h (3 Bft) 95,74 %
10.09.2022 13:30 16,4 C 16,7 C 12,8 C 98 % 1011,3 hPa 0,0 l/m 0 min 0 min 233 W/m 22,5 km/h (4 Bft) 97,87 %
10.09.2022 13:32 16,6 C 16,7 C 12,8 C 98 % 1011,2 hPa 0,0 l/m 0 min 0 min 261 W/m 12,9 km/h (3 Bft) 97,87 %
10.09.2022 13:34 16,6 C 16,7 C 12,8 C 98 % 1011,3 hPa 0,0 l/m 0 min 0 min 247 W/m 12,9 km/h (3 Bft) 97,14 %
10.09.2022 13:36 16,7 C 16,7 C 12,8 C 98 % 1011,4 hPa 0,0 l/m 0 min 0 min 212 W/m 22,5 km/h (4 Bft) 96,55 %
10.09.2022 13:38 16,7 C 16,7 C 12,8 C 98 % 1011,4 hPa 0,0 l/m 0 min 0 min 190 W/m 19,3 km/h (3 Bft) 97,56 %
10.09.2022 13:40 16,8 C 16,7 C 12,8 C 98 % 1011,4 hPa 0,0 l/m 0 min 0 min 214 W/m 19,3 km/h (3 Bft) 97,87 %
10.09.2022 13:42 16,8 C 16,7 C 12,8 C 98 % 1011,3 hPa 0,0 l/m 0 min 0 min 204 W/m 16,1 km/h (3 Bft) 93,62 %
10.09.2022 13:44 16,8 C 17,2 C 13,3 C 98 % 1011,3 hPa 0,0 l/m 0 min 0 min 243 W/m 12,9 km/h (3 Bft) 97,87 %
10.09.2022 13:46 16,8 C 16,7 C 12,8 C 98 % 1011,3 hPa 0,0 l/m 0 min 0 min 191 W/m 19,3 km/h (3 Bft) 98,08 %
10.09.2022 13:48 16,8 C 16,7 C 12,8 C 98 % 1011,4 hPa 0,0 l/m 0 min 0 min 193 W/m 22,5 km/h (4 Bft) 100,00 %
10.09.2022 13:50 16,9 C 16,7 C 12,8 C 98 % 1011,3 hPa 0,0 l/m 0 min 0 min 220 W/m 12,9 km/h (3 Bft) 100,00 %
10.09.2022 13:52 17,0 C 17,2 C 13,3 C 98 % 1011,3 hPa 0,0 l/m 0 min 0 min 168 W/m 19,3 km/h (3 Bft) 96,00 %
10.09.2022 13:54 17,1 C 17,2 C 13,3 C 98 % 1011,3 hPa 0,0 l/m 0 min 0 min 242 W/m 16,1 km/h (3 Bft) 100,00 %
10.09.2022 13:56 17,1 C 17,2 C 13,3 C 98 % 1011,3 hPa 0,0 l/m 0 min 0 min 214 W/m 12,9 km/h (3 Bft) 97,87 %
10.09.2022 13:58 17,1 C 17,2 C 13,3 C 98 % 1011,4 hPa 0,0 l/m 0 min 0 min 326 W/m 16,1 km/h (3 Bft) 100,00 %
10.09.2022 14:00 17,1 C 17,2 C 13,3 C 98 % 1011,3 hPa 0,0 l/m 0 min 0 min 290 W/m 12,9 km/h (3 Bft) 97,87 %
10.09.2022 14:02 17,2 C 17,2 C 13,3 C 97 % 1011,3 hPa 0,0 l/m 0 min 0 min 230 W/m 12,9 km/h (3 Bft) 95,65 %
10.09.2022 14:04 17,2 C 17,8 C 13,3 C 97 % 1011,4 hPa 0,0 l/m 0 min 0 min 317 W/m 12,9 km/h (3 Bft) 95,74 %
10.09.2022 14:06 17,3 C 17,8 C 13,3 C 97 % 1011,3 hPa 0,0 l/m 0 min 0 min 307 W/m 22,5 km/h (4 Bft) 97,87 %
10.09.2022 14:08 17,3 C 17,8 C 13,3 C 97 % 1011,3 hPa 0,0 l/m 2 min 0 min 342 W/m 9,7 km/h (2 Bft) 97,87 %
10.09.2022 14:10 17,4 C 18,3 C 13,3 C 97 % 1011,3 hPa 0,0 l/m 2 min 0 min 353 W/m 12,9 km/h (3 Bft) 97,87 %
10.09.2022 14:12 17,5 C 18,3 C 13,3 C 97 % 1011,3 hPa 0,0 l/m 2 min 0 min 371 W/m 19,3 km/h (3 Bft) 95,74 %
10.09.2022 14:14 17,5 C 17,8 C 13,3 C 97 % 1011,4 hPa 0,0 l/m 0 min 0 min 277 W/m 19,3 km/h (3 Bft) 95,65 %
10.09.2022 14:16 17,5 C 17,8 C 13,3 C 97 % 1011,3 hPa 0,0 l/m 0 min 0 min 268 W/m 25,7 km/h (4 Bft) 93,62 %
10.09.2022 14:18 17,5 C 17,8 C 13,3 C 96 % 1011,3 hPa 0,0 l/m 0 min 0 min 245 W/m 16,1 km/h (3 Bft) 93,62 %
10.09.2022 14:20 17,5 C 17,8 C 13,3 C 96 % 1011,4 hPa 0,0 l/m 0 min 0 min 246 W/m 19,3 km/h (3 Bft) 93,62 %
10.09.2022 14:22 17,6 C 17,8 C 13,3 C 96 % 1011,4 hPa 0,0 l/m 0 min 0 min 289 W/m 16,1 km/h (3 Bft) 91,49 %
10.09.2022 14:24 17,6 C 17,8 C 13,3 C 96 % 1011,4 hPa 0,0 l/m 0 min 0 min 269 W/m 6,4 km/h (2 Bft) 93,62 %
10.09.2022 14:26 17,7 C 17,8 C 13,3 C 96 % 1011,5 hPa 0,0 l/m 0 min 0 min 282 W/m 19,3 km/h (3 Bft) 95,65 %
10.09.2022 14:28 17,7 C 17,8 C 13,3 C 96 % 1011,4 hPa 0,0 l/m 0 min 0 min 271 W/m 16,1 km/h (3 Bft) 97,87 %
10.09.2022 14:30 17,7 C 17,8 C 13,3 C 96 % 1011,4 hPa 0,0 l/m 0 min 0 min 261 W/m 16,1 km/h (3 Bft) 95,74 %
10.09.2022 14:32 17,7 C 18,3 C 13,3 C 96 % 1011,4 hPa 0,0 l/m 2 min 0 min 342 W/m 19,3 km/h (3 Bft) 95,74 %
10.09.2022 14:34 17,8 C 18,3 C 13,3 C 95 % 1011,4 hPa 0,0 l/m 2 min 0 min 343 W/m 22,5 km/h (4 Bft) 95,74 %
10.09.2022 14:36 17,8 C 18,3 C 13,3 C 95 % 1011,4 hPa 0,0 l/m 0 min 0 min 308 W/m 19,3 km/h (3 Bft) 94,83 %
10.09.2022 14:38 17,8 C 18,3 C 13,3 C 95 % 1011,5 hPa 0,0 l/m 0 min 0 min 296 W/m 12,9 km/h (3 Bft) 94,29 %
10.09.2022 14:40 17,8 C 18,3 C 13,3 C 95 % 1011,3 hPa 0,0 l/m 0 min 0 min 271 W/m 16,1 km/h (3 Bft) 95,74 %
10.09.2022 14:42 17,8 C 18,3 C 13,3 C 95 % 1011,2 hPa 0,0 l/m 0 min 0 min 281 W/m 16,1 km/h (3 Bft) 95,74 %
10.09.2022 14:44 17,9 C 18,3 C 13,3 C 95 % 1011,3 hPa 0,0 l/m 0 min 0 min 274 W/m 16,1 km/h (3 Bft) 95,74 %
10.09.2022 14:46 17,9 C 17,8 C 13,3 C 94 % 1011,2 hPa 0,0 l/m 0 min 0 min 244 W/m 12,9 km/h (3 Bft) 93,88 %
10.09.2022 14:48 17,9 C 17,8 C 13,3 C 94 % 1011,2 hPa 0,0 l/m 0 min 0 min 235 W/m 16,1 km/h (3 Bft) 95,65 %
10.09.2022 14:50 17,9 C 17,8 C 13,3 C 94 % 1011,3 hPa 0,0 l/m 0 min 0 min 183 W/m 16,1 km/h (3 Bft) 97,87 %
10.09.2022 14:52 17,9 C 17,8 C 13,3 C 94 % 1011,2 hPa 0,0 l/m 0 min 0 min 170 W/m 16,1 km/h (3 Bft) 100,00 %
10.09.2022 14:54 17,9 C 17,8 C 13,3 C 94 % 1011,3 hPa 0,0 l/m 0 min 2 min 150 W/m 16,1 km/h (3 Bft) 100,00 %
10.09.2022 14:56 17,9 C 17,8 C 13,3 C 94 % 1011,2 hPa 0,0 l/m 0 min 2 min 134 W/m 12,9 km/h (3 Bft) 100,00 %
10.09.2022 14:58 17,9 C 17,2 C 13,3 C 94 % 1011,2 hPa 0,2 l/m 0 min 2 min 126 W/m 12,9 km/h (3 Bft) 100,00 %
10.09.2022 15:00 17,9 C 17,2 C 13,3 C 94 % 1011,3 hPa 0,0 l/m 0 min 2 min 130 W/m 12,9 km/h (3 Bft) 100,00 %
10.09.2022 15:02 17,9 C 17,2 C 13,3 C 94 % 1011,2 hPa 0,0 l/m 0 min 2 min 127 W/m 19,3 km/h (3 Bft) 97,87 %
10.09.2022 15:04 17,9 C 17,2 C 13,3 C 94 % 1011,2 hPa 0,0 l/m 0 min 2 min 102 W/m 9,7 km/h (2 Bft) 100,00 %
10.09.2022 15:06 17,9 C 17,2 C 13,3 C 94 % 1011,2 hPa 0,0 l/m 0 min 2 min 105 W/m 16,1 km/h (3 Bft) 100,00 %
10.09.2022 15:08 17,8 C 17,2 C 13,3 C 94 % 1011,2 hPa 0,0 l/m 0 min 2 min 144 W/m 16,1 km/h (3 Bft) 100,00 %
10.09.2022 15:10 17,8 C 17,2 C 13,3 C 94 % 1011,2 hPa 0,0 l/m 0 min 2 min 159 W/m 19,3 km/h (3 Bft) 100,00 %
10.09.2022 15:12 17,8 C 17,2 C 13,3 C 94 % 1011,2 hPa 0,0 l/m 0 min 2 min 131 W/m 22,5 km/h (4 Bft) 97,83 %
10.09.2022 15:14 17,7 C 17,2 C 13,3 C 94 % 1011,3 hPa 0,0 l/m 0 min 2 min 92 W/m 16,1 km/h (3 Bft) 97,87 %
10.09.2022 15:16 17,7 C 17,2 C 13,3 C 94 % 1011,3 hPa 0,0 l/m 0 min 2 min 47 W/m 16,1 km/h (3 Bft) 97,87 %
10.09.2022 15:18 17,7 C 17,2 C 12,8 C 94 % 1011,3 hPa 0,0 l/m 0 min 2 min 35 W/m 16,1 km/h (3 Bft) 100,00 %
10.09.2022 15:20 17,7 C 16,7 C 12,8 C 94 % 1011,3 hPa 0,0 l/m 0 min 0 min 35 W/m 9,7 km/h (2 Bft) 100,00 %
10.09.2022 15:22 17,7 C 16,7 C 13,3 C 94 % 1011,3 hPa 0,0 l/m 0 min 2 min 44 W/m 12,9 km/h (3 Bft) 97,87 %
10.09.2022 15:24 17,7 C 16,7 C 12,8 C 94 % 1011,5 hPa 0,0 l/m 0 min 2 min 76 W/m 16,1 km/h (3 Bft) 100,00 %
10.09.2022 15:26 17,7 C 16,7 C 13,3 C 94 % 1011,4 hPa 0,2 l/m 0 min 2 min 74 W/m 16,1 km/h (3 Bft) 97,83 %
10.09.2022 15:28 17,6 C 16,7 C 12,8 C 95 % 1011,3 hPa 0,4 l/m 0 min 2 min 66 W/m 6,4 km/h (2 Bft) 100,00 %
10.09.2022 15:30 17,6 C 16,7 C 12,8 C 95 % 1011,3 hPa 0,6 l/m 0 min 2 min 61 W/m 12,9 km/h (3 Bft) 100,00 %
10.09.2022 15:32 17,5 C 16,1 C 12,8 C 95 % 1011,4 hPa 0,4 l/m 0 min 2 min 68 W/m 22,5 km/h (4 Bft) 100,00 %
10.09.2022 15:34 17,5 C 16,1 C 12,8 C 95 % 1011,3 hPa 0,0 l/m 0 min 2 min 77 W/m 12,9 km/h (3 Bft) 100,00 %
10.09.2022 15:36 17,4 C 16,1 C 12,8 C 95 % 1011,4 hPa 0,0 l/m 0 min 2 min 81 W/m 16,1 km/h (3 Bft) 100,00 %
10.09.2022 15:38 17,4 C 16,1 C 13,3 C 95 % 1011,4 hPa 0,0 l/m 0 min 0 min 85 W/m 9,7 km/h (2 Bft) 100,00 %
10.09.2022 15:40 17,4 C 16,7 C 13,3 C 95 % 1011,5 hPa 0,0 l/m 0 min 0 min 86 W/m 12,9 km/h (3 Bft) 100,00 %
10.09.2022 15:42 17,4 C 16,7 C 13,3 C 95 % 1011,4 hPa 0,0 l/m 0 min 0 min 85 W/m 6,4 km/h (2 Bft) 97,87 %
10.09.2022 15:44 17,4 C 16,7 C 13,3 C 96 % 1011,5 hPa 0,0 l/m 0 min 0 min 83 W/m 6,4 km/h (2 Bft) 100,00 %
10.09.2022 15:46 17,4 C 16,7 C 13,3 C 96 % 1011,5 hPa 0,0 l/m 0 min 0 min 80 W/m 6,4 km/h (2 Bft) 100,00 %
10.09.2022 15:48 17,4 C 16,7 C 13,3 C 96 % 1011,6 hPa 0,0 l/m 0 min 0 min 79 W/m 12,9 km/h (3 Bft) 97,87 %
10.09.2022 15:50 17,4 C 16,7 C 13,3 C 96 % 1011,5 hPa 0,0 l/m 0 min 0 min 77 W/m 6,4 km/h (2 Bft) 97,83 %
10.09.2022 15:52 17,4 C 16,7 C 13,3 C 96 % 1011,6 hPa 0,0 l/m 0 min 0 min 75 W/m 12,9 km/h (3 Bft) 93,62 %
10.09.2022 15:54 17,3 C 16,7 C 13,3 C 96 % 1011,6 hPa 0,0 l/m 0 min 0 min 74 W/m 12,9 km/h (3 Bft) 95,74 %
10.09.2022 15:56 17,3 C 16,7 C 13,3 C 96 % 1011,6 hPa 0,0 l/m 0 min 0 min 73 W/m 9,7 km/h (2 Bft) 95,74 %
10.09.2022 15:58 17,3 C 16,7 C 13,3 C 96 % 1011,6 hPa 0,0 l/m 0 min 0 min 70 W/m 6,4 km/h (2 Bft) 97,87 %
10.09.2022 16:00 17,3 C 16,7 C 13,3 C 96 % 1011,5 hPa 0,0 l/m 0 min 0 min 70 W/m 9,7 km/h (2 Bft) 97,83 %
10.09.2022 16:02 17,4 C 16,7 C 13,3 C 96 % 1011,5 hPa 0,0 l/m 0 min 0 min 70 W/m 12,9 km/h (3 Bft) 95,74 %
10.09.2022 16:04 17,4 C 16,7 C 13,3 C 96 % 1011,5 hPa 0,0 l/m 0 min 0 min 70 W/m 6,4 km/h (2 Bft) 95,74 %
10.09.2022 16:06 17,4 C 16,7 C 13,3 C 96 % 1011,5 hPa 0,0 l/m 0 min 0 min 69 W/m 6,4 km/h (2 Bft) 97,87 %
10.09.2022 16:08 17,3 C 16,7 C 13,3 C 96 % 1011,5 hPa 0,0 l/m 0 min 0 min 72 W/m 12,9 km/h (3 Bft) 97,87 %
10.09.2022 16:10 17,3 C 16,7 C 13,3 C 96 % 1011,5 hPa 0,0 l/m 0 min 0 min 76 W/m 12,9 km/h (3 Bft) 95,74 %
10.09.2022 16:12 17,3 C 16,7 C 13,3 C 96 % 1011,5 hPa 0,0 l/m 0 min 0 min 77 W/m 6,4 km/h (2 Bft) 93,62 %
10.09.2022 16:14 17,3 C 16,7 C 12,8 C 96 % 1011,5 hPa 0,0 l/m 0 min 0 min 78 W/m 9,7 km/h (2 Bft) 95,65 %
10.09.2022 16:16 17,3 C 16,7 C 12,8 C 96 % 1011,5 hPa 0,0 l/m 0 min 0 min 79 W/m 12,9 km/h (3 Bft) 95,74 %
10.09.2022 16:18 17,3 C 16,7 C 12,8 C 96 % 1011,5 hPa 0,0 l/m 0 min 0 min 81 W/m 6,4 km/h (2 Bft) 95,74 %
10.09.2022 16:20 17,3 C 16,7 C 12,8 C 96 % 1011,5 hPa 0,0 l/m 0 min 0 min 83 W/m 6,4 km/h (2 Bft) 95,74 %
10.09.2022 16:22 17,3 C 16,7 C 13,3 C 96 % 1011,5 hPa 0,0 l/m 0 min 0 min 86 W/m 9,7 km/h (2 Bft) 94,74 %
10.09.2022 16:24 17,3 C 16,7 C 12,8 C 96 % 1011,5 hPa 0,0 l/m 0 min 0 min 89 W/m 9,7 km/h (2 Bft) 95,74 %
10.09.2022 16:26 17,3 C 16,7 C 13,3 C 96 % 1011,5 hPa 0,0 l/m 0 min 0 min 91 W/m 6,4 km/h (2 Bft) 93,62 %
10.09.2022 16:28 17,3 C 16,7 C 13,3 C 96 % 1011,5 hPa 0,0 l/m 0 min 0 min 94 W/m 6,4 km/h (2 Bft) 95,65 %
10.09.2022 16:30 17,3 C 16,7 C 13,3 C 96 % 1011,6 hPa 0,0 l/m 0 min 0 min 95 W/m 6,4 km/h (2 Bft) 95,74 %
10.09.2022 16:32 17,3 C 16,7 C 13,3 C 96 % 1011,6 hPa 0,0 l/m 0 min 0 min 96 W/m 9,7 km/h (2 Bft) 91,49 %
10.09.2022 16:34 17,3 C 16,7 C 13,3 C 96 % 1011,6 hPa 0,0 l/m 0 min 0 min 95 W/m 6,4 km/h (2 Bft) 95,74 %
10.09.2022 16:36 17,3 C 16,7 C 13,3 C 96 % 1011,6 hPa 0,0 l/m 0 min 0 min 92 W/m 6,4 km/h (2 Bft) 94,83 %
10.09.2022 16:38 17,3 C 16,7 C 13,3 C 96 % 1011,7 hPa 0,0 l/m 0 min 0 min 91 W/m 6,4 km/h (2 Bft) 97,22 %
10.09.2022 16:40 17,3 C 16,7 C 13,3 C 96 % 1011,9 hPa 0,0 l/m 0 min 0 min 84 W/m 12,9 km/h (3 Bft) 95,65 %
10.09.2022 16:42 17,3 C 16,7 C 13,3 C 96 % 1011,9 hPa 0,0 l/m 0 min 0 min 67 W/m 6,4 km/h (2 Bft) 97,87 %
10.09.2022 16:44 17,3 C 16,7 C 13,3 C 96 % 1012,0 hPa 0,0 l/m 0 min 0 min 53 W/m 6,4 km/h (2 Bft) 100,00 %
10.09.2022 16:46 17,3 C 16,7 C 13,3 C 96 % 1012,1 hPa 0,0 l/m 0 min 0 min 41 W/m 9,7 km/h (2 Bft) 97,87 %
10.09.2022 16:48 17,3 C 16,7 C 13,3 C 97 % 1012,0 hPa 0,0 l/m 0 min 0 min 33 W/m 12,9 km/h (3 Bft) 97,87 %
10.09.2022 16:50 17,3 C 16,7 C 13,3 C 96 % 1012,1 hPa 0,0 l/m 0 min 0 min 33 W/m 12,9 km/h (3 Bft) 100,00 %
10.09.2022 16:52 17,3 C 16,7 C 13,3 C 96 % 1012,0 hPa 0,0 l/m 0 min 0 min 46 W/m 9,7 km/h (2 Bft) 100,00 %
10.09.2022 16:54 17,3 C 16,7 C 13,3 C 96 % 1011,9 hPa 0,0 l/m 0 min 0 min 60 W/m 12,9 km/h (3 Bft) 100,00 %
10.09.2022 16:56 17,3 C 16,7 C 13,3 C 96 % 1011,9 hPa 0,0 l/m 0 min 0 min 60 W/m 6,4 km/h (2 Bft) 97,87 %
10.09.2022 16:58 17,3 C 16,7 C 13,3 C 96 % 1011,8 hPa 0,0 l/m 0 min 0 min 55 W/m 3,2 km/h (1 Bft) 97,87 %
10.09.2022 17:00 17,3 C 16,7 C 13,3 C 97 % 1011,8 hPa 0,0 l/m 0 min 0 min 54 W/m 3,2 km/h (1 Bft) 97,87 %
10.09.2022 17:02 17,4 C 16,7 C 13,3 C 97 % 1011,8 hPa 0,0 l/m 0 min 0 min 58 W/m 6,4 km/h (2 Bft) 97,87 %
10.09.2022 17:04 17,4 C 16,7 C 13,3 C 97 % 1011,9 hPa 0,0 l/m 0 min 0 min 64 W/m 6,4 km/h (2 Bft) 95,65 %
10.09.2022 17:06 17,3 C 16,7 C 13,3 C 96 % 1011,8 hPa 0,0 l/m 0 min 0 min 70 W/m 9,7 km/h (2 Bft) 94,92 %
10.09.2022 17:08 17,3 C 16,7 C 13,3 C 96 % 1011,9 hPa 0,0 l/m 0 min 0 min 76 W/m 16,1 km/h (3 Bft) 100,00 %
10.09.2022 17:10 17,3 C 16,7 C 13,3 C 96 % 1011,8 hPa 0,0 l/m 0 min 0 min 77 W/m 12,9 km/h (3 Bft) 97,87 %
10.09.2022 17:12 17,3 C 16,7 C 12,8 C 96 % 1011,8 hPa 0,0 l/m 0 min 0 min 79 W/m 6,4 km/h (2 Bft) 97,87 %
10.09.2022 17:14 17,2 C 16,7 C 12,8 C 96 % 1011,8 hPa 0,0 l/m 0 min 0 min 83 W/m 6,4 km/h (2 Bft) 95,74 %
10.09.2022 17:16 17,2 C 16,7 C 12,8 C 96 % 1011,9 hPa 0,0 l/m 0 min 0 min 87 W/m 6,4 km/h (2 Bft) 97,83 %
10.09.2022 17:18 17,2 C 16,7 C 12,8 C 96 % 1011,8 hPa 0,0 l/m 0 min 0 min 90 W/m 12,9 km/h (3 Bft) 95,74 %
10.09.2022 17:20 17,1 C 16,7 C 12,8 C 96 % 1011,9 hPa 0,0 l/m 0 min 0 min 91 W/m 6,4 km/h (2 Bft) 97,87 %
10.09.2022 17:22 17,1 C 16,7 C 12,8 C 96 % 1011,9 hPa 0,0 l/m 0 min 0 min 89 W/m 3,2 km/h (1 Bft) 97,87 %
10.09.2022 17:24 17,1 C 16,7 C 12,8 C 96 % 1011,8 hPa 0,0 l/m 0 min 0 min 86 W/m 6,4 km/h (2 Bft) 97,87 %
10.09.2022 17:26 17,0 C 16,7 C 12,8 C 96 % 1011,9 hPa 0,0 l/m 0 min 0 min 83 W/m 6,4 km/h (2 Bft) 97,87 %
10.09.2022 17:28 17,0 C 16,7 C 12,8 C 96 % 1011,9 hPa 0,0 l/m 0 min 0 min 84 W/m 9,7 km/h (2 Bft) 97,83 %
10.09.2022 17:30 16,9 C 16,7 C 12,8 C 95 % 1012,0 hPa 0,0 l/m 0 min 0 min 87 W/m 3,2 km/h (1 Bft) 97,87 %
10.09.2022 17:32 16,9 C 16,7 C 12,8 C 95 % 1011,9 hPa 0,0 l/m 0 min 0 min 82 W/m 6,4 km/h (2 Bft) 97,87 %
10.09.2022 17:34 16,9 C 16,7 C 12,8 C 95 % 1012,0 hPa 0,0 l/m 0 min 0 min 79 W/m 6,4 km/h (2 Bft) 95,74 %
10.09.2022 17:36 16,9 C 16,7 C 12,8 C 95 % 1012,0 hPa 0,0 l/m 0 min 0 min 76 W/m 6,4 km/h (2 Bft) 96,55 %
10.09.2022 17:38 16,9 C 16,7 C 12,8 C 95 % 1012,1 hPa 0,0 l/m 0 min 0 min 71 W/m 9,7 km/h (2 Bft) 97,22 %
10.09.2022 17:40 16,9 C 16,1 C 12,8 C 95 % 1012,1 hPa 0,0 l/m 0 min 2 min 67 W/m 6,4 km/h (2 Bft) 97,83 %
10.09.2022 17:42 16,9 C 16,1 C 12,8 C 95 % 1012,1 hPa 0,0 l/m 0 min 0 min 62 W/m 6,4 km/h (2 Bft) 97,87 %
10.09.2022 17:44 16,9 C 16,1 C 12,8 C 95 % 1012,1 hPa 0,0 l/m 0 min 0 min 55 W/m 3,2 km/h (1 Bft) 97,87 %
10.09.2022 17:46 16,9 C 16,1 C 12,8 C 95 % 1012,1 hPa 0,0 l/m 0 min 0 min 50 W/m 3,2 km/h (1 Bft) 100,00 %
10.09.2022 17:48 16,9 C 16,1 C 12,8 C 95 % 1012,2 hPa 0,0 l/m 0 min 0 min 46 W/m 6,4 km/h (2 Bft) 100,00 %
10.09.2022 17:50 16,9 C 16,1 C 12,8 C 95 % 1012,2 hPa 0,0 l/m 0 min 0 min 41 W/m 6,4 km/h (2 Bft) 100,00 %
10.09.2022 17:52 16,9 C 16,1 C 12,8 C 95 % 1012,2 hPa 0,0 l/m 0 min 0 min 37 W/m 3,2 km/h (1 Bft) 97,87 %
10.09.2022 17:54 16,9 C 16,1 C 12,8 C 95 % 1012,2 hPa 0,0 l/m 0 min 0 min 35 W/m 6,4 km/h (2 Bft) 100,00 %
10.09.2022 17:56 16,9 C 16,1 C 12,8 C 95 % 1012,2 hPa 0,0 l/m 0 min 2 min 35 W/m 6,4 km/h (2 Bft) 97,87 %
10.09.2022 17:58 16,9 C 16,1 C 12,8 C 95 % 1012,2 hPa 0,0 l/m 0 min 2 min 35 W/m 12,9 km/h (3 Bft) 97,87 %
10.09.2022 18:00 16,9 C 16,1 C 12,8 C 95 % 1012,2 hPa 0,0 l/m 0 min 2 min 35 W/m 12,9 km/h (3 Bft) 100,00 %
10.09.2022 18:02 16,9 C 16,1 C 12,8 C 95 % 1012,2 hPa 0,0 l/m 0 min 2 min 38 W/m 12,9 km/h (3 Bft) 100,00 %
10.09.2022 18:04 16,9 C 16,1 C 12,8 C 95 % 1012,2 hPa 0,0 l/m 0 min 2 min 44 W/m 6,4 km/h (2 Bft) 100,00 %
10.09.2022 18:08 16,9 C 16,1 C 12,8 C 96 % 1012,3 hPa 0,0 l/m 0 min 4 min 48 W/m 12,9 km/h (3 Bft) 97,03 %
10.09.2022 18:10 16,9 C 16,1 C 12,8 C 96 % 1012,3 hPa 0,0 l/m 0 min 2 min 47 W/m 6,4 km/h (2 Bft) 97,87 %
10.09.2022 18:12 17,0 C 16,1 C 12,8 C 96 % 1012,3 hPa 0,0 l/m 0 min 2 min 56 W/m 6,4 km/h (2 Bft) 97,83 %
10.09.2022 18:14 17,0 C 16,1 C 12,8 C 96 % 1012,3 hPa 0,0 l/m 0 min 2 min 61 W/m 6,4 km/h (2 Bft) 97,87 %
10.09.2022 18:16 17,0 C 16,1 C 12,8 C 96 % 1012,3 hPa 0,0 l/m 0 min 2 min 66 W/m 9,7 km/h (2 Bft) 95,74 %
10.09.2022 18:18 17,0 C 16,1 C 12,8 C 96 % 1012,3 hPa 0,2 l/m 0 min 2 min 74 W/m 6,4 km/h (2 Bft) 97,87 %
10.09.2022 18:20 17,1 C 16,1 C 12,8 C 96 % 1012,4 hPa 0,0 l/m 0 min 2 min 79 W/m 6,4 km/h (2 Bft) 97,87 %
10.09.2022 18:22 17,1 C 16,1 C 12,8 C 96 % 1012,4 hPa 0,0 l/m 0 min 0 min 69 W/m 6,4 km/h (2 Bft) 95,74 %
10.09.2022 18:24 17,1 C 16,1 C 12,8 C 96 % 1012,4 hPa 0,0 l/m 0 min 0 min 65 W/m 6,4 km/h (2 Bft) 97,83 %
10.09.2022 18:26 17,1 C 16,7 C 12,8 C 96 % 1012,4 hPa 0,0 l/m 0 min 0 min 67 W/m 6,4 km/h (2 Bft) 97,87 %
10.09.2022 18:28 17,1 C 16,7 C 12,8 C 96 % 1012,3 hPa 0,0 l/m 0 min 0 min 62 W/m 6,4 km/h (2 Bft) 97,87 %
10.09.2022 18:30 17,1 C 16,7 C 12,8 C 96 % 1012,4 hPa 0,0 l/m 0 min 0 min 44 W/m 9,7 km/h (2 Bft) 97,87 %
10.09.2022 18:32 17,1 C 16,7 C 12,8 C 97 % 1012,4 hPa 0,0 l/m 0 min 0 min 28 W/m 6,4 km/h (2 Bft) 97,87 %
10.09.2022 18:34 17,1 C 16,1 C 12,8 C 97 % 1012,4 hPa 0,0 l/m 0 min 0 min 25 W/m 12,9 km/h (3 Bft) 97,87 %
10.09.2022 18:36 17,1 C 16,7 C 12,8 C 97 % 1012,5 hPa 0,0 l/m 0 min 0 min 26 W/m 6,4 km/h (2 Bft) 97,83 %
10.09.2022 18:38 17,1 C 16,7 C 12,8 C 97 % 1012,5 hPa 0,0 l/m 0 min 0 min 33 W/m 6,4 km/h (2 Bft) 100,00 %
10.09.2022 18:40 17,1 C 16,7 C 12,8 C 97 % 1012,5 hPa 0,0 l/m 0 min 0 min 36 W/m 6,4 km/h (2 Bft) 97,87 %
10.09.2022 18:42 17,2 C 16,7 C 13,3 C 97 % 1012,5 hPa 0,0 l/m 0 min 0 min 60 W/m 6,4 km/h (2 Bft) 97,87 %
10.09.2022 18:44 17,2 C 16,7 C 13,3 C 97 % 1012,5 hPa 0,0 l/m 0 min 0 min 75 W/m 9,7 km/h (2 Bft) 97,87 %
10.09.2022 18:46 17,2 C 16,7 C 13,3 C 97 % 1012,6 hPa 0,0 l/m 0 min 0 min 76 W/m 9,7 km/h (2 Bft) 97,87 %
10.09.2022 18:48 17,2 C 16,7 C 13,3 C 97 % 1012,6 hPa 0,0 l/m 0 min 0 min 83 W/m 12,9 km/h (3 Bft) 95,74 %
10.09.2022 18:50 17,2 C 16,7 C 13,3 C 97 % 1012,6 hPa 0,0 l/m 2 min 0 min 101 W/m 9,7 km/h (2 Bft) 97,83 %
10.09.2022 18:52 17,3 C 16,7 C 13,3 C 97 % 1012,6 hPa 0,0 l/m 2 min 0 min 140 W/m 6,4 km/h (2 Bft) 97,87 %
10.09.2022 18:54 17,3 C 17,2 C 13,3 C 97 % 1012,6 hPa 0,0 l/m 2 min 0 min 166 W/m 12,9 km/h (3 Bft) 97,87 %
10.09.2022 18:56 17,3 C 17,2 C 13,3 C 97 % 1012,7 hPa 0,0 l/m 2 min 0 min 160 W/m 12,9 km/h (3 Bft) 95,74 %
10.09.2022 18:58 17,4 C 17,2 C 13,3 C 97 % 1012,7 hPa 0,0 l/m 2 min 0 min 133 W/m 12,9 km/h (3 Bft) 97,87 %
10.09.2022 19:00 17,4 C 17,2 C 13,3 C 97 % 1012,8 hPa 0,0 l/m 2 min 0 min 107 W/m 12,9 km/h (3 Bft) 97,87 %
10.09.2022 19:02 17,4 C 17,2 C 13,3 C 97 % 1012,8 hPa 0,0 l/m 2 min 0 min 84 W/m 6,4 km/h (2 Bft) 97,83 %
10.09.2022 19:04 17,4 C 17,2 C 13,3 C 97 % 1012,8 hPa 0,0 l/m 2 min 0 min 70 W/m 12,9 km/h (3 Bft) 97,87 %
10.09.2022 19:06 17,4 C 17,2 C 13,3 C 97 % 1012,9 hPa 0,0 l/m 2 min 0 min 66 W/m 12,9 km/h (3 Bft) 95,74 %
10.09.2022 19:08 17,4 C 17,2 C 13,3 C 97 % 1012,9 hPa 0,0 l/m 2 min 0 min 64 W/m 6,4 km/h (2 Bft) 97,87 %
10.09.2022 19:10 17,4 C 17,2 C 13,3 C 97 % 1012,8 hPa 0,0 l/m 2 min 0 min 62 W/m 6,4 km/h (2 Bft) 95,74 %
10.09.2022 19:12 17,4 C 16,7 C 13,3 C 97 % 1012,9 hPa 0,0 l/m 0 min 0 min 56 W/m 6,4 km/h (2 Bft) 97,83 %
10.09.2022 19:14 17,4 C 16,7 C 13,3 C 97 % 1013,0 hPa 0,0 l/m 0 min 0 min 49 W/m 3,2 km/h (1 Bft) 95,74 %
10.09.2022 19:16 17,4 C 16,7 C 13,3 C 97 % 1012,9 hPa 0,0 l/m 0 min 0 min 47 W/m 6,4 km/h (2 Bft) 97,87 %
10.09.2022 19:18 17,4 C 16,7 C 13,3 C 97 % 1013,0 hPa 0,0 l/m 0 min 0 min 42 W/m 16,1 km/h (3 Bft) 97,87 %
10.09.2022 19:20 17,4 C 16,7 C 13,3 C 97 % 1013,1 hPa 0,0 l/m 2 min 0 min 55 W/m 9,7 km/h (2 Bft) 97,87 %
10.09.2022 19:22 17,4 C 16,7 C 13,3 C 97 % 1013,1 hPa 0,0 l/m 2 min 0 min 63 W/m 9,7 km/h (2 Bft) 100,00 %
10.09.2022 19:24 17,4 C 16,7 C 13,3 C 97 % 1013,1 hPa 0,0 l/m 2 min 0 min 55 W/m 9,7 km/h (2 Bft) 97,83 %
10.09.2022 19:26 17,4 C 16,7 C 13,3 C 97 % 1013,1 hPa 0,0 l/m 2 min 0 min 42 W/m 9,7 km/h (2 Bft) 97,87 %
10.09.2022 19:28 17,4 C 16,7 C 13,3 C 97 % 1013,1 hPa 0,0 l/m 0 min 0 min 26 W/m 9,7 km/h (2 Bft) 100,00 %
10.09.2022 19:30 17,4 C 16,7 C 13,3 C 97 % 1013,2 hPa 0,0 l/m 0 min 0 min 18 W/m 9,7 km/h (2 Bft) 100,00 %
10.09.2022 19:32 17,3 C 16,7 C 13,3 C 97 % 1013,2 hPa 0,0 l/m 0 min 0 min 16 W/m 12,9 km/h (3 Bft) 97,87 %
10.09.2022 19:34 17,3 C 16,7 C 13,3 C 97 % 1013,2 hPa 0,0 l/m 0 min 0 min 13 W/m 6,4 km/h (2 Bft) 100,00 %
10.09.2022 19:36 17,3 C 16,1 C 13,3 C 97 % 1013,3 hPa 0,0 l/m 0 min 0 min 12 W/m 9,7 km/h (2 Bft) 100,00 %
10.09.2022 19:38 17,3 C 16,1 C 13,3 C 97 % 1013,3 hPa 0,0 l/m 0 min 0 min 11 W/m 6,4 km/h (2 Bft) 100,00 %
10.09.2022 19:40 17,2 C 16,1 C 13,3 C 97 % 1013,3 hPa 0,0 l/m 0 min 0 min 11 W/m 6,4 km/h (2 Bft) 100,00 %
10.09.2022 19:42 17,2 C 16,1 C 13,3 C 97 % 1013,3 hPa 0,0 l/m 0 min 0 min 10 W/m 3,2 km/h (1 Bft) 97,87 %
10.09.2022 19:44 17,2 C 16,1 C 13,3 C 97 % 1013,4 hPa 0,0 l/m 0 min 0 min 9 W/m 3,2 km/h (1 Bft) 100,00 %
10.09.2022 19:46 17,2 C 16,1 C 13,3 C 97 % 1013,4 hPa 0,0 l/m 0 min 0 min 8 W/m 6,4 km/h (2 Bft) 100,00 %
10.09.2022 19:48 17,2 C 16,1 C 13,3 C 97 % 1013,4 hPa 0,0 l/m 0 min 0 min 7 W/m 3,2 km/h (1 Bft) 56,52 %
10.09.2022 19:50 17,2 C 16,1 C 13,3 C 97 % 1013,4 hPa 0,0 l/m 0 min 0 min 7 W/m 6,4 km/h (2 Bft) 93,62 %
10.09.2022 19:52 17,1 C 16,1 C 13,3 C 97 % 1013,5 hPa 0,0 l/m 0 min 0 min 7 W/m 3,2 km/h (1 Bft) 97,87 %
10.09.2022 19:54 17,1 C 16,1 C 12,8 C 97 % 1013,5 hPa 0,0 l/m 0 min 0 min 5 W/m 3,2 km/h (1 Bft) 97,87 %
10.09.2022 19:56 17,1 C 16,1 C 13,3 C 97 % 1013,5 hPa 0,0 l/m 0 min 0 min 4 W/m 3,2 km/h (1 Bft) 95,74 %
10.09.2022 19:58 17,1 C 16,1 C 13,3 C 97 % 1013,6 hPa 0,0 l/m 0 min 0 min 0 W/m 6,4 km/h (2 Bft) 97,87 %
10.09.2022 20:00 17,1 C 16,1 C 13,3 C 97 % 1013,6 hPa 0,0 l/m 0 min 0 min 0 W/m 6,4 km/h (2 Bft) 95,65 %
10.09.2022 20:02 17,0 C 16,1 C 12,8 C 97 % 1013,6 hPa 0,0 l/m 0 min 0 min 0 W/m 3,2 km/h (1 Bft) 95,74 %
10.09.2022 20:04 17,0 C 16,1 C 12,8 C 97 % 1013,6 hPa 0,0 l/m 0 min 0 min 0 W/m 3,2 km/h (1 Bft) 93,62 %
10.09.2022 20:06 17,0 C 16,1 C 12,8 C 97 % 1013,7 hPa 0,0 l/m 0 min 0 min 0 W/m 3,2 km/h (1 Bft) 95,74 %
10.09.2022 20:08 17,0 C 16,1 C 12,8 C 97 % 1013,7 hPa 0,0 l/m 0 min 0 min 0 W/m 3,2 km/h (1 Bft) 95,74 %
10.09.2022 20:10 17,0 C 16,1 C 12,8 C 97 % 1013,7 hPa 0,0 l/m 0 min 0 min 0 W/m 3,2 km/h (1 Bft) 95,74 %
10.09.2022 20:12 17,0 C 16,1 C 12,8 C 97 % 1013,7 hPa 0,0 l/m 0 min 0 min 0 W/m 0,0 km/h (0 Bft) 95,65 %
10.09.2022 20:14 17,0 C 16,1 C 12,8 C 97 % 1013,8 hPa 0,0 l/m 0 min 0 min 0 W/m 0,0 km/h (0 Bft) 95,74 %
10.09.2022 20:16 16,9 C 16,1 C 12,8 C 97 % 1013,8 hPa 0,0 l/m 0 min 0 min 0 W/m 3,2 km/h (1 Bft) 95,74 %
10.09.2022 20:18 16,9 C 16,1 C 12,8 C 97 % 1013,8 hPa 0,0 l/m 0 min 0 min 0 W/m 3,2 km/h (1 Bft) 93,62 %
10.09.2022 20:20 16,9 C 16,1 C 12,8 C 97 % 1013,9 hPa 0,0 l/m 0 min 0 min 0 W/m 6,4 km/h (2 Bft) 95,74 %
10.09.2022 20:22 16,9 C 16,1 C 12,8 C 97 % 1013,9 hPa 0,0 l/m 0 min 0 min 0 W/m 3,2 km/h (1 Bft) 95,74 %
10.09.2022 20:24 16,9 C 16,1 C 12,8 C 97 % 1013,9 hPa 0,0 l/m 0 min 0 min 0 W/m 3,2 km/h (1 Bft) 93,48 %
10.09.2022 20:26 16,9 C 16,1 C 12,8 C 97 % 1013,9 hPa 0,0 l/m 0 min 0 min 0 W/m 6,4 km/h (2 Bft) 93,62 %
10.09.2022 20:28 16,9 C 16,1 C 12,8 C 98 % 1014,0 hPa 0,0 l/m 0 min 0 min 0 W/m 3,2 km/h (1 Bft) 93,62 %
10.09.2022 20:30 16,9 C 16,1 C 12,8 C 98 % 1014,0 hPa 0,0 l/m 0 min 0 min 0 W/m 3,2 km/h (1 Bft) 97,87 %
10.09.2022 20:32 16,9 C 16,1 C 12,8 C 98 % 1014,1 hPa 0,0 l/m 0 min 0 min 0 W/m 3,2 km/h (1 Bft) 95,74 %
10.09.2022 20:34 16,9 C 16,1 C 12,8 C 98 % 1014,1 hPa 0,0 l/m 0 min 0 min 0 W/m 3,2 km/h (1 Bft) 97,87 %
10.09.2022 20:36 16,9 C 16,1 C 12,8 C 98 % 1014,2 hPa 0,0 l/m 0 min 0 min 0 W/m 6,4 km/h (2 Bft) 100,00 %
10.09.2022 20:38 16,9 C 16,1 C 12,8 C 98 % 1014,2 hPa 0,0 l/m 0 min 0 min 0 W/m 6,4 km/h (2 Bft) 100,00 %
10.09.2022 20:40 16,9 C 16,1 C 12,8 C 98 % 1014,2 hPa 0,0 l/m 0 min 0 min 0 W/m 6,4 km/h (2 Bft) 100,00 %
10.09.2022 20:42 16,8 C 16,1 C 12,8 C 98 % 1014,3 hPa 0,0 l/m 0 min 0 min 0 W/m 6,4 km/h (2 Bft) 100,00 %
10.09.2022 20:44 16,8 C 16,1 C 12,8 C 98 % 1014,3 hPa 0,0 l/m 0 min 0 min 0 W/m 9,7 km/h (2 Bft) 100,00 %
10.09.2022 20:46 16,8 C 15,6 C 12,8 C 98 % 1014,3 hPa 0,0 l/m 0 min 0 min 0 W/m 9,7 km/h (2 Bft) 100,00 %
10.09.2022 20:48 16,8 C 15,6 C 12,8 C 98 % 1014,3 hPa 0,0 l/m 0 min 0 min 0 W/m 3,2 km/h (1 Bft) 100,00 %
10.09.2022 20:50 16,8 C 15,6 C 12,8 C 98 % 1014,4 hPa 0,0 l/m 0 min 0 min 0 W/m 6,4 km/h (2 Bft) 100,00 %
10.09.2022 20:52 16,8 C 15,6 C 12,8 C 98 % 1014,5 hPa 0,0 l/m 0 min 0 min 0 W/m 9,7 km/h (2 Bft) 97,87 %
10.09.2022 20:54 16,8 C 15,6 C 12,8 C 98 % 1014,5 hPa 0,0 l/m 0 min 0 min 0 W/m 3,2 km/h (1 Bft) 97,87 %
10.09.2022 20:56 16,8 C 15,6 C 12,8 C 98 % 1014,5 hPa 0,0 l/m 0 min 0 min 0 W/m 3,2 km/h (1 Bft) 100,00 %
10.09.2022 20:58 16,8 C 16,1 C 12,8 C 98 % 1014,5 hPa 0,0 l/m 0 min 0 min 0 W/m 3,2 km/h (1 Bft) 100,00 %
10.09.2022 21:00 16,8 C 16,1 C 12,8 C 98 % 1014,5 hPa 0,0 l/m 0 min 0 min 0 W/m 3,2 km/h (1 Bft) 100,00 %
10.09.2022 21:02 16,8 C 16,1 C 12,8 C 98 % 1014,5 hPa 0,0 l/m 0 min 0 min 0 W/m 3,2 km/h (1 Bft) 95,74 %
10.09.2022 21:04 16,8 C 16,1 C 12,8 C 98 % 1014,5 hPa 0,0 l/m 0 min 0 min 0 W/m 3,2 km/h (1 Bft) 97,87 %
10.09.2022 21:06 16,9 C 16,1 C 13,3 C 98 % 1014,6 hPa 0,0 l/m 0 min 0 min 0 W/m 3,2 km/h (1 Bft) 100,00 %
10.09.2022 21:08 16,9 C 16,1 C 12,8 C 98 % 1014,6 hPa 0,0 l/m 0 min 0 min 0 W/m 3,2 km/h (1 Bft) 100,00 %
10.09.2022 21:10 16,9 C 16,1 C 12,8 C 98 % 1014,7 hPa 0,0 l/m 0 min 0 min 0 W/m 6,4 km/h (2 Bft) 100,00 %
10.09.2022 21:12 16,9 C 16,1 C 12,8 C 98 % 1014,7 hPa 0,0 l/m 0 min 0 min 0 W/m 3,2 km/h (1 Bft) 100,00 %
10.09.2022 21:14 16,9 C 16,1 C 12,8 C 98 % 1014,7 hPa 0,0 l/m 0 min 0 min 0 W/m 6,4 km/h (2 Bft) 97,87 %
10.09.2022 21:16 16,9 C 16,1 C 12,8 C 98 % 1014,8 hPa 0,0 l/m 0 min 0 min 0 W/m 3,2 km/h (1 Bft) 100,00 %
10.09.2022 21:18 16,9 C 16,1 C 12,8 C 98 % 1014,8 hPa 0,0 l/m 0 min 0 min 0 W/m 9,7 km/h (2 Bft) 100,00 %
10.09.2022 21:20 16,9 C 16,1 C 12,8 C 98 % 1014,8 hPa 0,0 l/m 0 min 0 min 0 W/m 3,2 km/h (1 Bft) 97,87 %
10.09.2022 21:22 16,9 C 16,1 C 12,8 C 98 % 1014,9 hPa 0,0 l/m 0 min 0 min 0 W/m 6,4 km/h (2 Bft) 100,00 %
10.09.2022 21:24 16,9 C 16,1 C 12,8 C 98 % 1014,9 hPa 0,0 l/m 0 min 0 min 0 W/m 3,2 km/h (1 Bft) 100,00 %
10.09.2022 21:26 16,9 C 16,1 C 12,8 C 98 % 1014,9 hPa 0,0 l/m 0 min 0 min 0 W/m 6,4 km/h (2 Bft) 100,00 %
10.09.2022 21:28 16,9 C 16,1 C 12,8 C 98 % 1015,0 hPa 0,0 l/m 0 min 0 min 0 W/m 6,4 km/h (2 Bft) 100,00 %
10.09.2022 21:30 16,9 C 16,1 C 12,8 C 98 % 1015,0 hPa 0,0 l/m 0 min 0 min 0 W/m 6,4 km/h (2 Bft) 100,00 %
10.09.2022 21:32 16,8 C 16,1 C 12,8 C 98 % 1015,0 hPa 0,0 l/m 0 min 0 min 0 W/m 3,2 km/h (1 Bft) 100,00 %
10.09.2022 21:34 16,8 C 16,1 C 12,8 C 98 % 1015,0 hPa 0,0 l/m 0 min 0 min 0 W/m 6,4 km/h (2 Bft) 100,00 %
10.09.2022 21:36 16,8 C 16,1 C 12,8 C 98 % 1015,0 hPa 0,0 l/m 0 min 0 min 0 W/m 9,7 km/h (2 Bft) 97,87 %
10.09.2022 21:38 16,8 C 16,1 C 12,8 C 98 % 1015,0 hPa 0,0 l/m 0 min 0 min 0 W/m 3,2 km/h (1 Bft) 97,87 %
10.09.2022 21:40 16,8 C 16,1 C 12,8 C 98 % 1015,1 hPa 0,0 l/m 0 min 0 min 0 W/m 3,2 km/h (1 Bft) 97,87 %
10.09.2022 21:42 16,8 C 16,1 C 12,8 C 98 % 1015,0 hPa 0,0 l/m 0 min 0 min 0 W/m 3,2 km/h (1 Bft) 95,74 %
10.09.2022 21:44 16,8 C 16,1 C 12,8 C 98 % 1015,0 hPa 0,0 l/m 0 min 0 min 0 W/m 3,2 km/h (1 Bft) 95,74 %
10.09.2022 21:46 16,8 C 16,1 C 12,8 C 98 % 1015,0 hPa 0,0 l/m 0 min 0 min 0 W/m 6,4 km/h (2 Bft) 97,83 %
10.09.2022 21:48 16,8 C 16,1 C 12,8 C 98 % 1015,1 hPa 0,0 l/m 0 min 0 min 0 W/m 9,7 km/h (2 Bft) 97,87 %
10.09.2022 21:50 16,7 C 16,1 C 12,8 C 98 % 1015,1 hPa 0,0 l/m 0 min 0 min 0 W/m 6,4 km/h (2 Bft) 97,87 %
10.09.2022 21:52 16,7 C 16,1 C 12,8 C 98 % 1015,1 hPa 0,0 l/m 0 min 0 min 0 W/m 6,4 km/h (2 Bft) 93,62 %
10.09.2022 21:54 16,7 C 16,1 C 12,8 C 98 % 1015,1 hPa 0,0 l/m 0 min 0 min 0 W/m 3,2 km/h (1 Bft) 95,74 %
10.09.2022 21:56 16,7 C 16,1 C 12,8 C 98 % 1015,1 hPa 0,0 l/m 0 min 0 min 0 W/m 6,4 km/h (2 Bft) 95,74 %
10.09.2022 21:58 16,7 C 16,1 C 12,8 C 98 % 1015,1 hPa 0,0 l/m 0 min 0 min 0 W/m 3,2 km/h (1 Bft) 95,74 %
10.09.2022 22:00 16,7 C 16,1 C 12,8 C 98 % 1015,1 hPa 0,0 l/m 0 min 0 min 0 W/m 3,2 km/h (1 Bft) 93,48 %
10.09.2022 22:02 16,7 C 16,1 C 12,8 C 98 % 1015,2 hPa 0,0 l/m 0 min 0 min 0 W/m 3,2 km/h (1 Bft) 95,74 %
10.09.2022 22:04 16,7 C 16,1 C 12,8 C 98 % 1015,2 hPa 0,0 l/m 0 min 0 min 0 W/m 3,2 km/h (1 Bft) 93,62 %
10.09.2022 22:06 16,7 C 16,1 C 12,8 C 98 % 1015,2 hPa 0,0 l/m 0 min 0 min 0 W/m 3,2 km/h (1 Bft) 95,74 %
10.09.2022 22:08 16,7 C 16,1 C 12,8 C 98 % 1015,2 hPa 0,0 l/m 0 min 0 min 0 W/m 3,2 km/h (1 Bft) 95,74 %
10.09.2022 22:10 16,7 C 16,1 C 12,8 C 98 % 1015,2 hPa 0,0 l/m 0 min 0 min 0 W/m 9,7 km/h (2 Bft) 95,74 %
10.09.2022 22:12 16,7 C 16,1 C 12,8 C 98 % 1015,3 hPa 0,0 l/m 0 min 0 min 0 W/m 3,2 km/h (1 Bft) 93,48 %
10.09.2022 22:14 16,7 C 16,1 C 12,8 C 98 % 1015,2 hPa 0,0 l/m 0 min 0 min 0 W/m 0,0 km/h (0 Bft) 95,74 %
10.09.2022 22:16 16,7 C 16,1 C 12,8 C 98 % 1015,3 hPa 0,0 l/m 0 min 0 min 0 W/m 0,0 km/h (0 Bft) 93,62 %
10.09.2022 22:18 16,7 C 16,1 C 12,8 C 98 % 1015,3 hPa 0,0 l/m 0 min 0 min 0 W/m 0,0 km/h (0 Bft) 93,62 %
10.09.2022 22:20 16,6 C 16,1 C 12,8 C 98 % 1015,3 hPa 0,0 l/m 0 min 0 min 0 W/m 0,0 km/h (0 Bft) 95,74 %
10.09.2022 22:22 16,6 C 16,1 C 12,8 C 98 % 1015,3 hPa 0,0 l/m 0 min 0 min 0 W/m 0,0 km/h (0 Bft) 95,65 %
10.09.2022 22:24 16,6 C 16,1 C 12,8 C 98 % 1015,3 hPa 0,0 l/m 0 min 0 min 0 W/m 3,2 km/h (1 Bft) 100,00 %
10.09.2022 22:26 16,6 C 16,1 C 12,8 C 98 % 1015,4 hPa 0,0 l/m 0 min 0 min 0 W/m 3,2 km/h (1 Bft) 100,00 %
10.09.2022 22:28 16,6 C 16,1 C 12,8 C 98 % 1015,3 hPa 0,0 l/m 0 min 0 min 0 W/m 0,0 km/h (0 Bft) 95,74 %
10.09.2022 22:30 16,6 C 15,6 C 12,8 C 98 % 1015,3 hPa 0,0 l/m 0 min 0 min 0 W/m 3,2 km/h (1 Bft) 100,00 %
10.09.2022 22:32 16,6 C 15,6 C 12,8 C 98 % 1015,4 hPa 0,0 l/m 0 min 0 min 0 W/m 0,0 km/h (0 Bft) 100,00 %
10.09.2022 22:34 16,6 C 15,6 C 12,8 C 98 % 1015,4 hPa 0,0 l/m 0 min 0 min 0 W/m 0,0 km/h (0 Bft) 100,00 %
10.09.2022 22:36 16,6 C 15,6 C 12,8 C 98 % 1015,4 hPa 0,0 l/m 0 min 0 min 0 W/m 0,0 km/h (0 Bft) 97,87 %
10.09.2022 22:38 16,6 C 15,6 C 12,8 C 98 % 1015,4 hPa 0,0 l/m 0 min 0 min 0 W/m 0,0 km/h (0 Bft) 97,87 %
10.09.2022 22:40 16,6 C 15,6 C 12,8 C 98 % 1015,4 hPa 0,0 l/m 0 min 0 min 0 W/m 6,4 km/h (2 Bft) 97,87 %
10.09.2022 22:42 16,6 C 15,6 C 12,8 C 98 % 1015,4 hPa 0,0 l/m 0 min 0 min 0 W/m 0,0 km/h (0 Bft) 95,74 %
10.09.2022 22:44 16,6 C 15,6 C 12,8 C 98 % 1015,5 hPa 0,0 l/m 0 min 0 min 0 W/m 0,0 km/h (0 Bft) 97,87 %
10.09.2022 22:46 16,6 C 15,6 C 12,8 C 98 % 1015,5 hPa 0,0 l/m 0 min 0 min 0 W/m 0,0 km/h (0 Bft) 97,83 %
10.09.2022 22:48 16,6 C 15,6 C 12,8 C 98 % 1015,5 hPa 0,0 l/m 0 min 0 min 0 W/m 0,0 km/h (0 Bft) 97,87 %
10.09.2022 22:50 16,6 C 15,6 C 12,8 C 98 % 1015,5 hPa 0,0 l/m 0 min 0 min 0 W/m 0,0 km/h (0 Bft) 97,87 %
10.09.2022 22:52 16,7 C 16,1 C 12,8 C 98 % 1015,6 hPa 0,0 l/m 0 min 0 min 0 W/m 0,0 km/h (0 Bft) 97,87 %
10.09.2022 22:54 16,7 C 15,6 C 12,8 C 98 % 1015,6 hPa 0,0 l/m 0 min 0 min 0 W/m 0,0 km/h (0 Bft) 97,87 %
10.09.2022 22:56 16,7 C 15,6 C 12,8 C 98 % 1015,6 hPa 0,0 l/m 0 min 0 min 0 W/m 0,0 km/h (0 Bft) 97,87 %
10.09.2022 22:58 16,6 C 15,6 C 12,8 C 98 % 1015,6 hPa 0,0 l/m 0 min 0 min 0 W/m 0,0 km/h (0 Bft) 97,83 %
10.09.2022 23:00 16,6 C 15,6 C 12,8 C 98 % 1015,6 hPa 0,0 l/m 0 min 0 min 0 W/m 0,0 km/h (0 Bft) 97,87 %
10.09.2022 23:02 16,6 C 15,6 C 12,8 C 98 % 1015,6 hPa 0,0 l/m 0 min 0 min 0 W/m 0,0 km/h (0 Bft) 97,87 %
10.09.2022 23:04 16,7 C 16,1 C 12,8 C 98 % 1015,6 hPa 0,0 l/m 0 min 0 min 0 W/m 0,0 km/h (0 Bft) 97,87 %
10.09.2022 23:06 16,7 C 16,1 C 12,8 C 98 % 1015,6 hPa 0,0 l/m 0 min 0 min 0 W/m 0,0 km/h (0 Bft) 97,87 %
10.09.2022 23:08 16,7 C 16,1 C 12,8 C 98 % 1015,6 hPa 0,0 l/m 0 min 0 min 0 W/m 0,0 km/h (0 Bft) 97,87 %
10.09.2022 23:10 16,7 C 16,1 C 12,8 C 98 % 1015,7 hPa 0,0 l/m 0 min 0 min 0 W/m 0,0 km/h (0 Bft) 97,83 %
10.09.2022 23:12 16,7 C 16,1 C 12,8 C 98 % 1015,7 hPa 0,0 l/m 0 min 0 min 0 W/m 3,2 km/h (1 Bft) 97,87 %
10.09.2022 23:14 16,7 C 16,1 C 12,8 C 98 % 1015,7 hPa 0,0 l/m 0 min 0 min 0 W/m 3,2 km/h (1 Bft) 95,74 %
10.09.2022 23:16 16,7 C 16,1 C 12,8 C 98 % 1015,7 hPa 0,0 l/m 0 min 0 min 0 W/m 3,2 km/h (1 Bft) 97,87 %
10.09.2022 23:18 16,7 C 16,1 C 12,8 C 98 % 1015,7 hPa 0,0 l/m 0 min 0 min 0 W/m 0,0 km/h (0 Bft) 97,87 %
10.09.2022 23:20 16,7 C 16,1 C 12,8 C 98 % 1015,7 hPa 0,0 l/m 0 min 0 min 0 W/m 0,0 km/h (0 Bft) 97,87 %
10.09.2022 23:22 16,7 C 16,1 C 12,8 C 98 % 1015,7 hPa 0,0 l/m 0 min 0 min 0 W/m 0,0 km/h (0 Bft) 97,83 %
10.09.2022 23:24 16,6 C 15,6 C 12,8 C 98 % 1015,8 hPa 0,0 l/m 0 min 0 min 0 W/m 0,0 km/h (0 Bft) 100,00 %
10.09.2022 23:26 16,7 C 15,6 C 12,8 C 98 % 1015,8 hPa 0,0 l/m 0 min 0 min 0 W/m 3,2 km/h (1 Bft) 100,00 %
10.09.2022 23:28 16,7 C 15,6 C 12,8 C 98 % 1015,8 hPa 0,0 l/m 0 min 0 min 0 W/m 6,4 km/h (2 Bft) 100,00 %
10.09.2022 23:30 16,7 C 16,1 C 12,8 C 98 % 1015,8 hPa 0,0 l/m 0 min 0 min 0 W/m 3,2 km/h (1 Bft) 100,00 %
10.09.2022 23:32 16,6 C 16,1 C 12,8 C 98 % 1015,9 hPa 0,0 l/m 0 min 0 min 0 W/m 0,0 km/h (0 Bft) 100,00 %
10.09.2022 23:34 16,6 C 15,6 C 12,8 C 98 % 1015,9 hPa 0,0 l/m 0 min 0 min 0 W/m 3,2 km/h (1 Bft) 97,83 %
10.09.2022 23:36 16,6 C 15,6 C 12,8 C 98 % 1015,9 hPa 0,0 l/m 0 min 0 min 0 W/m 0,0 km/h (0 Bft) 97,87 %
10.09.2022 23:38 16,6 C 15,6 C 12,8 C 98 % 1015,9 hPa 0,0 l/m 0 min 0 min 0 W/m 0,0 km/h (0 Bft) 100,00 %
10.09.2022 23:40 16,6 C 15,6 C 12,8 C 98 % 1015,9 hPa 0,0 l/m 0 min 0 min 0 W/m 0,0 km/h (0 Bft) 97,87 %
10.09.2022 23:42 16,6 C 15,6 C 12,8 C 98 % 1015,9 hPa 0,0 l/m 0 min 0 min 0 W/m 0,0 km/h (0 Bft) 100,00 %
10.09.2022 23:44 16,6 C 15,6 C 12,8 C 98 % 1015,9 hPa 0,0 l/m 0 min 0 min 0 W/m 0,0 km/h (0 Bft) 97,87 %
10.09.2022 23:46 16,6 C 15,6 C 12,8 C 98 % 1016,0 hPa 0,0 l/m 0 min 0 min 0 W/m 0,0 km/h (0 Bft) 97,83 %
10.09.2022 23:48 16,6 C 15,6 C 12,8 C 98 % 1016,0 hPa 0,0 l/m 0 min 0 min 0 W/m 3,2 km/h (1 Bft) 97,87 %
10.09.2022 23:50 16,6 C 15,6 C 12,8 C 98 % 1016,0 hPa 0,0 l/m 0 min 0 min 0 W/m 0,0 km/h (0 Bft) 95,74 %
10.09.2022 23:52 16,6 C 15,6 C 12,8 C 98 % 1016,0 hPa 0,0 l/m 0 min 0 min 0 W/m 0,0 km/h (0 Bft) 97,87 %
10.09.2022 23:54 16,6 C 15,6 C 12,8 C 98 % 1015,9 hPa 0,0 l/m 0 min 0 min 0 W/m 0,0 km/h (0 Bft) 97,87 %
10.09.2022 23:56 16,6 C 15,6 C 12,8 C 98 % 1016,1 hPa 0,0 l/m 0 min 0 min 0 W/m 0,0 km/h (0 Bft) 97,87 %
10.09.2022 23:58 16,6 C 15,6 C 12,8 C 98 % 1016,1 hPa 0,0 l/m 0 min 0 min 0 W/m 0,0 km/h (0 Bft) 97,83 %
_ Min-Zeit 01:26 00:40 00:08 02:26 00:00 - - - - 00:00 19:48
Minimum _ 14,8 C 13,9 C 10,6 C 94 % 1010,2 hPa - - - - 0,0 km/h (0 Bft) 56,52 %
_ Max-Zeit 14:44 14:10 13:44 08:52 23:56 15:30 14:08 18:08 14:12 11:52 00:00
Maximum _ 17,9 C 18,3 C 13,3 C 98 % 1016,1 hPa 0,6 l/m 2 min 4 min 371 W/m 48,3 km/h
SW (6 Bft)
100,00 %
Durchschnitt _ 16,1 C 15,4 C 12,0 C 96 % 1011,7 hPa #10,8 l/m #40 min. #6:22 h 84 W/m 10,6 km/h (2 Bft) 97,52 %
© 2022 W. Hausmann